Time,TemperatureF,DewpointF,PressureIn,WindDirection,WindDirectionDegrees,WindSpeedMPH,WindSpeedGustMPH,Humidity,HourlyPrecipIn,Conditions,Clouds,dailyrainin,SolarRadiationWatts/m^2,SoftwareType,DateUTC
2013-12-01 00:00:00,70.9,67.8,30.07,NNE,32,3.0,10.0,90,0.00,,FEW,0.00,0.00,VWS V14.01,2013-12-01 05:00:00,
2013-12-01 00:01:00,70.9,67.8,30.07,NNE,18,7.0,10.0,90,0.00,,FEW,0.00,0.00,VWS V14.01,2013-12-01 05:01:00,
2013-12-01 00:06:00,70.9,67.8,30.07,NNE,12,4.0,8.0,90,0.00,,FEW,0.00,0.00,VWS V14.01,2013-12-01 05:06:00,
2013-12-01 00:07:00,70.9,67.8,30.07,NNE,24,5.0,8.0,90,0.00,,FEW,0.00,0.00,VWS V14.01,2013-12-01 05:07:00,
2013-12-01 00:11:00,70.9,67.8,30.07,NE,40,3.0,9.0,90,0.00,,FEW,0.00,0.00,VWS V14.01,2013-12-01 05:11:00,
2013-12-01 00:12:00,70.9,67.8,30.07,NNE,28,6.0,11.0,90,0.00,,FEW,0.00,0.00,VWS V14.01,2013-12-01 05:12:00,
2013-12-01 00:16:00,70.8,67.7,30.06,NNE,22,4.0,11.0,90,0.00,,FEW,0.00,0.00,VWS V14.01,2013-12-01 05:16:00,
2013-12-01 00:17:00,70.8,67.7,30.06,North,11,7.0,11.0,90,0.00,,FEW,0.00,0.00,VWS V14.01,2013-12-01 05:17:00,
2013-12-01 00:21:00,70.8,67.7,30.06,NNE,24,9.0,9.0,90,0.00,,FEW,0.00,0.00,VWS V14.01,2013-12-01 05:21:00,
2013-12-01 00:22:00,70.8,67.7,30.06,NNE,26,8.0,10.0,90,0.00,,FEW,0.00,0.00,VWS V14.01,2013-12-01 05:22:00,
2013-12-01 00:26:00,70.8,67.7,30.06,North,11,10.0,10.0,90,0.00,,FEW,0.00,0.00,VWS V14.01,2013-12-01 05:26:00,
2013-12-01 00:27:00,70.8,67.7,30.06,North,5,4.0,10.0,90,0.00,,FEW,0.00,0.00,VWS V14.01,2013-12-01 05:27:00,
2013-12-01 00:31:00,70.8,67.7,30.06,NE,39,8.0,9.0,90,0.00,,FEW,0.00,0.00,VWS V14.01,2013-12-01 05:31:00,
2013-12-01 00:32:00,70.8,67.7,30.06,North,355,5.0,9.0,90,0.00,,FEW,0.00,0.00,VWS V14.01,2013-12-01 05:32:00,
2013-12-01 00:37:00,70.8,67.7,30.06,NNE,30,3.0,10.0,90,0.00,,FEW,0.00,0.00,VWS V14.01,2013-12-01 05:37:00,
2013-12-01 00:38:00,70.8,67.7,30.06,NE,49,5.0,10.0,90,0.00,,FEW,0.00,0.00,VWS V14.01,2013-12-01 05:38:00,
2013-12-01 00:42:00,70.8,67.7,30.06,NE,39,2.0,5.0,90,0.00,,FEW,0.00,0.00,VWS V14.01,2013-12-01 05:42:00,
2013-12-01 00:43:00,70.8,67.7,30.06,NNE,28,9.0,9.0,90,0.00,,FEW,0.00,0.00,VWS V14.01,2013-12-01 05:43:00,
2013-12-01 00:47:00,70.7,67.6,30.05,NNE,22,8.0,9.0,90,0.00,,FEW,0.00,0.00,VWS V14.01,2013-12-01 05:47:00,
2013-12-01 00:48:00,70.7,67.6,30.05,North,355,13.0,13.0,90,0.00,,FEW,0.00,0.00,VWS V14.01,2013-12-01 05:48:00,
2013-12-01 00:49:00,70.7,67.6,30.05,NNE,27,3.0,13.0,90,0.00,,FEW,0.00,0.00,VWS V14.01,2013-12-01 05:49:00,
2013-12-01 00:52:00,70.7,67.6,30.05,NE,35,5.0,8.0,90,0.00,,FEW,0.00,0.00,VWS V14.01,2013-12-01 05:52:00,
2013-12-01 00:53:00,70.7,67.6,30.05,NNE,15,6.0,8.0,90,0.00,,FEW,0.00,0.00,VWS V14.01,2013-12-01 05:53:00,
2013-12-01 00:54:00,70.7,67.6,30.05,NNE,32,2.0,8.0,90,0.00,,FEW,0.00,0.00,VWS V14.01,2013-12-01 05:54:00,
2013-12-01 00:57:00,70.7,67.6,30.05,North,10,6.0,9.0,90,0.00,,FEW,0.00,0.00,VWS V14.01,2013-12-01 05:57:00,
2013-12-01 00:58:00,70.7,67.6,30.05,North,5,7.0,10.0,90,0.00,,FEW,0.00,0.00,VWS V14.01,2013-12-01 05:58:00,
2013-12-01 00:59:00,70.7,67.6,30.05,NE,34,5.0,10.0,90,0.00,,FEW,0.00,0.00,VWS V14.01,2013-12-01 05:59:00,
2013-12-01 01:02:00,70.7,67.6,30.05,NNE,15,7.0,8.0,90,0.00,,FEW,0.00,0.00,VWS V14.01,2013-12-01 06:02:00,
2013-12-01 01:03:00,70.7,67.6,30.05,NNE,28,4.0,8.0,90,0.00,,FEW,0.00,0.00,VWS V14.01,2013-12-01 06:03:00,
2013-12-01 01:04:00,70.7,67.6,30.05,NNE,19,6.0,8.0,90,0.00,,FEW,0.00,0.00,VWS V14.01,2013-12-01 06:04:00,
2013-12-01 01:07:00,70.7,67.6,30.05,NE,37,6.0,9.0,90,0.00,,FEW,0.00,0.00,VWS V14.01,2013-12-01 06:07:00,
2013-12-01 01:08:00,70.7,67.6,30.05,NE,37,5.0,9.0,90,0.00,,FEW,0.00,0.00,VWS V14.01,2013-12-01 06:08:00,
2013-12-01 01:09:00,70.7,67.6,30.05,NNE,23,6.0,11.0,90,0.00,,FEW,0.00,0.00,VWS V14.01,2013-12-01 06:09:00,
2013-12-01 01:10:00,70.7,67.6,30.05,NNW,339,10.0,11.0,90,0.00,,FEW,0.00,0.00,VWS V14.01,2013-12-01 06:10:00,
2013-12-01 01:12:00,70.7,67.6,30.05,NNE,15,4.0,8.0,90,0.00,,FEW,0.00,0.00,VWS V14.01,2013-12-01 06:12:00,
2013-12-01 01:13:00,70.7,67.6,30.05,NNE,17,4.0,8.0,90,0.00,,FEW,0.00,0.00,VWS V14.01,2013-12-01 06:13:00,
2013-12-01 01:14:00,70.7,67.6,30.05,NNE,22,2.0,8.0,90,0.00,,FEW,0.00,0.00,VWS V14.01,2013-12-01 06:14:00,
2013-12-01 01:15:00,70.7,67.6,30.06,NNE,18,2.0,8.0,90,0.00,,FEW,0.00,0.00,VWS V14.01,2013-12-01 06:15:00,
2013-12-01 01:17:00,70.7,67.6,30.06,North,5,6.0,8.0,90,0.00,,FEW,0.00,0.00,VWS V14.01,2013-12-01 06:17:00,
2013-12-01 01:18:00,70.7,67.6,30.06,NNE,18,3.0,8.0,90,0.00,,FEW,0.00,0.00,VWS V14.01,2013-12-01 06:18:00,
2013-12-01 01:20:00,70.6,67.5,30.06,NE,34,2.0,8.0,90,0.00,,FEW,0.00,0.00,VWS V14.01,2013-12-01 06:20:00,
2013-12-01 01:22:00,70.6,67.5,30.06,NNE,32,4.0,6.0,90,0.00,,FEW,0.00,0.00,VWS V14.01,2013-12-01 06:22:00,
2013-12-01 01:23:00,70.6,67.5,30.06,NNE,24,7.0,7.0,90,0.00,,FEW,0.00,0.00,VWS V14.01,2013-12-01 06:23:00,
2013-12-01 01:25:00,70.5,67.4,30.06,NE,53,6.0,8.0,90,0.00,,FEW,0.00,0.00,VWS V14.01,2013-12-01 06:25:00,
2013-12-01 01:28:00,70.5,67.4,30.06,North,10,3.0,10.0,90,0.00,,FEW,0.00,0.00,VWS V14.01,2013-12-01 06:28:00,
2013-12-01 01:30:00,70.5,67.4,30.05,North,11,7.0,10.0,90,0.00,,FEW,0.00,0.00,VWS V14.01,2013-12-01 06:30:00,
2013-12-01 01:31:00,70.5,67.4,30.05,NNE,29,2.0,10.0,90,0.00,,FEW,0.00,0.00,VWS V14.01,2013-12-01 06:31:00,
2013-12-01 01:33:00,70.5,67.4,30.05,NE,34,7.0,7.0,90,0.00,,FEW,0.00,0.00,VWS V14.01,2013-12-01 06:33:00,
2013-12-01 01:35:00,70.4,67.3,30.05,NNE,28,4.0,10.0,90,0.00,,FEW,0.00,0.00,VWS V14.01,2013-12-01 06:35:00,
2013-12-01 01:36:00,70.4,67.3,30.05,North,5,8.0,10.0,90,0.00,,FEW,0.00,0.00,VWS V14.01,2013-12-01 06:36:00,
2013-12-01 01:38:00,70.4,67.3,30.05,NNE,27,2.0,10.0,90,0.00,,FEW,0.00,0.00,VWS V14.01,2013-12-01 06:38:00,
2013-12-01 01:40:00,70.4,67.3,30.05,NE,34,5.0,11.0,90,0.00,,FEW,0.00,0.00,VWS V14.01,2013-12-01 06:40:00,
2013-12-01 01:41:00,70.4,67.3,30.05,NNE,12,3.0,11.0,90,0.00,,FEW,0.00,0.00,VWS V14.01,2013-12-01 06:41:00,
2013-12-01 01:43:00,70.4,67.3,30.05,NNE,33,6.0,8.0,90,0.00,,FEW,0.00,0.00,VWS V14.01,2013-12-01 06:43:00,
2013-12-01 01:44:00,70.4,67.3,30.05,NE,35,3.0,8.0,90,0.00,,FEW,0.00,0.00,VWS V14.01,2013-12-01 06:44:00,
2013-12-01 01:45:00,70.4,67.3,30.05,NNE,24,4.0,9.0,90,0.00,,FEW,0.00,0.00,VWS V14.01,2013-12-01 06:45:00,
2013-12-01 01:46:00,70.3,66.9,30.05,North,5,1.0,9.0,89,0.00,,FEW,0.00,0.00,VWS V14.01,2013-12-01 06:46:00,
2013-12-01 01:48:00,70.3,66.9,30.05,NE,44,1.0,9.0,89,0.00,,FEW,0.00,0.00,VWS V14.01,2013-12-01 06:48:00,
2013-12-01 01:49:00,70.3,66.9,30.05,NNE,21,8.0,9.0,89,0.00,,FEW,0.00,0.00,VWS V14.01,2013-12-01 06:49:00,
2013-12-01 01:51:00,70.3,66.9,30.05,NNE,23,6.0,9.0,89,0.00,,FEW,0.00,0.00,VWS V14.01,2013-12-01 06:51:00,
2013-12-01 01:53:00,70.3,66.9,30.05,NNE,22,8.0,12.0,89,0.00,,FEW,0.00,0.00,VWS V14.01,2013-12-01 06:53:00,
2013-12-01 01:54:00,70.3,66.9,30.05,NNE,30,4.0,13.0,89,0.00,,FEW,0.00,0.00,VWS V14.01,2013-12-01 06:54:00,
2013-12-01 01:56:00,70.3,66.9,30.05,NNE,28,2.0,13.0,89,0.00,,FEW,0.00,0.00,VWS V14.01,2013-12-01 06:56:00,
2013-12-01 01:57:00,70.3,66.9,30.05,NE,36,3.0,13.0,89,0.00,,FEW,0.00,0.00,VWS V14.01,2013-12-01 06:57:00,
2013-12-01 01:58:00,70.3,66.9,30.05,NNE,26,7.0,13.0,89,0.00,,FEW,0.00,0.00,VWS V14.01,2013-12-01 06:58:00,
2013-12-01 01:59:00,70.3,66.9,30.05,NE,36,4.0,13.0,89,0.00,,FEW,0.00,0.00,VWS V14.01,2013-12-01 06:59:00,
2013-12-01 02:01:00,70.3,66.9,30.04,NNE,13,6.0,6.0,89,0.00,,FEW,0.00,0.00,VWS V14.01,2013-12-01 07:01:00,
2013-12-01 02:02:00,70.3,66.9,30.04,NNE,13,6.0,6.0,89,0.00,,FEW,0.00,0.00,VWS V14.01,2013-12-01 07:02:00,
2013-12-01 02:03:00,70.4,67.0,30.04,NNE,15,7.0,8.0,89,0.00,,FEW,0.00,0.00,VWS V14.01,2013-12-01 07:03:00,
2013-12-01 02:04:00,70.3,66.9,30.04,NE,41,4.0,8.0,89,0.00,,FEW,0.00,0.00,VWS V14.01,2013-12-01 07:04:00,
2013-12-01 02:07:00,70.3,66.9,30.04,NNE,27,5.0,9.0,89,0.00,,FEW,0.00,0.00,VWS V14.01,2013-12-01 07:07:00,
2013-12-01 02:08:00,70.3,66.9,30.04,NE,36,3.0,9.0,89,0.00,,FEW,0.00,0.00,VWS V14.01,2013-12-01 07:08:00,
2013-12-01 02:09:00,70.3,66.9,30.04,NNE,30,6.0,9.0,89,0.00,,FEW,0.00,0.00,VWS V14.01,2013-12-01 07:09:00,
2013-12-01 02:12:00,70.3,66.9,30.04,North,5,5.0,9.0,89,0.00,,FEW,0.00,0.00,VWS V14.01,2013-12-01 07:12:00,
2013-12-01 02:13:00,70.3,66.9,30.04,NE,35,6.0,9.0,89,0.00,,FEW,0.00,0.00,VWS V14.01,2013-12-01 07:13:00,
2013-12-01 02:14:00,70.3,66.9,30.04,NNE,18,5.0,9.0,89,0.00,,FEW,0.00,0.00,VWS V14.01,2013-12-01 07:14:00,
2013-12-01 02:17:00,70.2,66.8,30.04,NNE,25,5.0,10.0,89,0.00,,FEW,0.00,0.00,VWS V14.01,2013-12-01 07:17:00,
2013-12-01 02:18:00,70.2,66.8,30.04,North,5,4.0,10.0,89,0.00,,FEW,0.00,0.00,VWS V14.01,2013-12-01 07:18:00,
2013-12-01 02:19:00,70.2,66.8,30.04,NE,47,12.0,12.0,89,0.00,,FEW,0.00,0.00,VWS V14.01,2013-12-01 07:19:00,
2013-12-01 02:20:00,70.2,66.8,30.04,NNE,14,6.0,12.0,89,0.00,,FEW,0.00,0.00,VWS V14.01,2013-12-01 07:20:00,
2013-12-01 02:22:00,70.3,66.9,30.04,NNE,27,3.0,13.0,89,0.00,,FEW,0.00,0.00,VWS V14.01,2013-12-01 07:22:00,
2013-12-01 02:23:00,70.2,66.8,30.04,NNE,26,11.0,13.0,89,0.00,,FEW,0.00,0.00,VWS V14.01,2013-12-01 07:23:00,
2013-12-01 02:24:00,70.2,66.8,30.04,NE,37,5.0,13.0,89,0.00,,FEW,0.00,0.00,VWS V14.01,2013-12-01 07:24:00,
2013-12-01 02:25:00,70.2,66.8,30.04,NNE,31,2.0,13.0,89,0.00,,FEW,0.00,0.00,VWS V14.01,2013-12-01 07:25:00,
2013-12-01 02:27:00,70.2,66.8,30.04,NNE,32,4.0,13.0,89,0.00,,FEW,0.00,0.00,VWS V14.01,2013-12-01 07:27:00,
2013-12-01 02:29:00,70.2,66.8,30.04,NNE,27,4.0,13.0,89,0.00,,FEW,0.00,0.00,VWS V14.01,2013-12-01 07:29:00,
2013-12-01 02:30:00,70.2,66.8,30.04,NNE,29,3.0,13.0,89,0.00,,FEW,0.00,0.00,VWS V14.01,2013-12-01 07:30:00,
2013-12-01 02:32:00,70.1,66.7,30.03,North,355,6.0,9.0,89,0.00,,FEW,0.00,0.00,VWS V14.01,2013-12-01 07:32:00,
2013-12-01 02:34:00,70.1,66.7,30.03,ENE,60,5.0,9.0,89,0.00,,FEW,0.00,0.00,VWS V14.01,2013-12-01 07:34:00,
2013-12-01 02:35:00,70.1,66.7,30.03,NNE,32,4.0,9.0,89,0.00,,FEW,0.00,0.00,VWS V14.01,2013-12-01 07:35:00,
2013-12-01 02:37:00,70.1,66.7,30.03,North,5,8.0,10.0,89,0.00,,FEW,0.00,0.00,VWS V14.01,2013-12-01 07:37:00,
2013-12-01 02:39:00,70.1,66.7,30.03,NNE,19,5.0,10.0,89,0.00,,FEW,0.00,0.00,VWS V14.01,2013-12-01 07:39:00,
2013-12-01 02:40:00,70.1,66.7,30.03,NE,44,2.0,10.0,89,0.00,,FEW,0.00,0.00,VWS V14.01,2013-12-01 07:40:00,
2013-12-01 02:41:00,70.1,66.7,30.03,ENE,60,5.0,10.0,89,0.00,,FEW,0.00,0.00,VWS V14.01,2013-12-01 07:41:00,
2013-12-01 02:42:00,70.1,66.7,30.03,NE,39,6.0,11.0,89,0.00,,FEW,0.00,0.00,VWS V14.01,2013-12-01 07:42:00,
2013-12-01 02:44:00,70.1,66.7,30.03,NNE,33,3.0,11.0,89,0.00,,FEW,0.00,0.00,VWS V14.01,2013-12-01 07:44:00,
2013-12-01 02:45:00,70.1,66.7,30.03,NE,42,10.0,12.0,89,0.00,,FEW,0.00,0.00,VWS V14.01,2013-12-01 07:45:00,
2013-12-01 02:46:00,70.1,66.7,30.03,NE,36,5.0,12.0,89,0.00,,FEW,0.00,0.00,VWS V14.01,2013-12-01 07:46:00,
2013-12-01 02:48:00,70.1,66.7,30.03,NNE,23,7.0,12.0,89,0.00,,FEW,0.00,0.00,VWS V14.01,2013-12-01 07:48:00,
2013-12-01 02:49:00,70.1,66.7,30.03,North,5,10.0,12.0,89,0.00,,FEW,0.00,0.00,VWS V14.01,2013-12-01 07:49:00,
2013-12-01 02:50:00,70.1,66.7,30.03,NE,55,9.0,12.0,89,0.00,,FEW,0.00,0.00,VWS V14.01,2013-12-01 07:50:00,
2013-12-01 02:51:00,70.0,66.6,30.03,NNE,23,4.0,12.0,89,0.00,,FEW,0.00,0.00,VWS V14.01,2013-12-01 07:51:00,
2013-12-01 02:53:00,70.0,66.6,30.03,NE,55,4.0,9.0,89,0.00,,FEW,0.00,0.00,VWS V14.01,2013-12-01 07:53:00,
2013-12-01 02:54:00,70.0,66.6,30.03,NNE,29,7.0,9.0,89,0.00,,FEW,0.00,0.00,VWS V14.01,2013-12-01 07:54:00,
2013-12-01 02:55:00,69.9,66.5,30.03,NNE,18,8.0,9.0,89,0.00,,FEW,0.00,0.00,VWS V14.01,2013-12-01 07:55:00,
2013-12-01 02:56:00,69.9,66.5,30.03,NE,50,2.0,9.0,89,0.00,,FEW,0.00,0.00,VWS V14.01,2013-12-01 07:56:00,
2013-12-01 02:58:00,69.9,66.5,30.03,North,349,7.0,9.0,89,0.00,,FEW,0.00,0.00,VWS V14.01,2013-12-01 07:58:00,
2013-12-01 03:00:00,69.9,66.5,30.03,North,5,7.0,9.0,89,0.00,,FEW,0.00,0.00,VWS V14.01,2013-12-01 08:00:00,
2013-12-01 03:01:00,69.9,66.5,30.02,NE,40,3.0,9.0,89,0.00,,FEW,0.00,0.00,VWS V14.01,2013-12-01 08:01:00,
2013-12-01 03:03:00,69.9,66.5,30.02,NNE,19,5.0,7.0,89,0.00,,FEW,0.00,0.00,VWS V14.01,2013-12-01 08:03:00,
2013-12-01 03:05:00,69.8,66.4,30.02,NNE,18,7.0,7.0,89,0.00,,FEW,0.00,0.00,VWS V14.01,2013-12-01 08:05:00,
2013-12-01 03:06:00,69.9,66.5,30.02,NE,37,4.0,7.0,89,0.00,,FEW,0.00,0.00,VWS V14.01,2013-12-01 08:06:00,
2013-12-01 03:08:00,69.8,66.4,30.02,ENE,59,8.0,8.0,89,0.00,,FEW,0.00,0.00,VWS V14.01,2013-12-01 08:08:00,
2013-12-01 03:11:00,69.8,66.7,30.02,NNE,19,1.0,8.0,90,0.00,,FEW,0.00,0.00,VWS V14.01,2013-12-01 08:11:00,
2013-12-01 03:13:00,69.8,66.7,30.02,NNE,21,6.0,7.0,90,0.00,,FEW,0.00,0.00,VWS V14.01,2013-12-01 08:13:00,
2013-12-01 03:16:00,69.8,66.7,30.02,NE,40,6.0,7.0,90,0.00,,FEW,0.00,0.00,VWS V14.01,2013-12-01 08:16:00,
2013-12-01 03:17:00,69.8,66.7,30.02,NE,40,1.0,7.0,90,0.00,,FEW,0.00,0.00,VWS V14.01,2013-12-01 08:17:00,
2013-12-01 03:19:00,69.7,66.6,30.02,NNE,19,6.0,7.0,90,0.00,,FEW,0.00,0.00,VWS V14.01,2013-12-01 08:19:00,
2013-12-01 03:21:00,69.7,66.6,30.02,NNE,30,5.0,7.0,90,0.00,,FEW,0.00,0.00,VWS V14.01,2013-12-01 08:21:00,
2013-12-01 03:22:00,69.7,66.6,30.02,NE,36,2.0,6.0,90,0.00,,FEW,0.00,0.00,VWS V14.01,2013-12-01 08:22:00,
2013-12-01 03:24:00,69.7,66.6,30.02,North,11,5.0,7.0,90,0.00,,FEW,0.00,0.00,VWS V14.01,2013-12-01 08:24:00,
2013-12-01 03:26:00,69.7,66.6,30.02,NNE,26,8.0,8.0,90,0.00,,FEW,0.00,0.00,VWS V14.01,2013-12-01 08:26:00,
2013-12-01 03:27:00,69.7,66.6,30.02,NNE,22,4.0,9.0,90,0.00,,FEW,0.00,0.00,VWS V14.01,2013-12-01 08:27:00,
2013-12-01 03:29:00,69.6,66.5,30.02,NE,54,3.0,9.0,90,0.00,,FEW,0.00,0.00,VWS V14.01,2013-12-01 08:29:00,
2013-12-01 03:31:00,69.6,66.5,30.02,NE,37,5.0,5.0,90,0.00,,FEW,0.00,0.00,VWS V14.01,2013-12-01 08:31:00,
2013-12-01 03:32:00,69.6,66.5,30.02,NE,38,3.0,5.0,90,0.00,,FEW,0.00,0.00,VWS V14.01,2013-12-01 08:32:00,
2013-12-01 03:35:00,69.6,66.5,30.02,NE,47,5.0,7.0,90,0.00,,FEW,0.00,0.00,VWS V14.01,2013-12-01 08:35:00,
2013-12-01 03:36:00,69.6,66.5,30.02,NNE,19,4.0,7.0,90,0.00,,FEW,0.00,0.00,VWS V14.01,2013-12-01 08:36:00,
2013-12-01 03:37:00,69.6,66.5,30.02,NNE,26,2.0,7.0,90,0.00,,FEW,0.00,0.00,VWS V14.01,2013-12-01 08:37:00,
2013-12-01 03:38:00,69.6,66.5,30.02,NNE,20,1.0,7.0,90,0.00,,FEW,0.00,0.00,VWS V14.01,2013-12-01 08:38:00,
2013-12-01 03:41:00,69.6,66.5,30.02,NNE,32,3.0,5.0,90,0.00,,FEW,0.00,0.00,VWS V14.01,2013-12-01 08:41:00,
2013-12-01 03:42:00,69.6,66.5,30.02,ENE,59,4.0,7.0,90,0.00,,FEW,0.00,0.00,VWS V14.01,2013-12-01 08:42:00,
2013-12-01 03:43:00,69.6,66.5,30.02,NNE,26,4.0,7.0,90,0.00,,FEW,0.00,0.00,VWS V14.01,2013-12-01 08:43:00,
2013-12-01 03:46:00,69.5,66.4,30.01,NNE,21,6.0,7.0,90,0.00,,FEW,0.00,0.00,VWS V14.01,2013-12-01 08:46:00,
2013-12-01 03:47:00,69.5,66.4,30.01,NE,39,3.0,7.0,90,0.00,,FEW,0.00,0.00,VWS V14.01,2013-12-01 08:47:00,
2013-12-01 03:48:00,69.5,66.4,30.01,NE,49,1.0,7.0,90,0.00,,FEW,0.00,0.00,VWS V14.01,2013-12-01 08:48:00,
2013-12-01 03:51:00,69.5,66.4,30.01,NNE,28,2.0,7.0,90,0.00,,FEW,0.00,0.00,VWS V14.01,2013-12-01 08:51:00,
2013-12-01 03:52:00,69.5,66.4,30.01,North,9,2.0,7.0,90,0.00,,FEW,0.00,0.00,VWS V14.01,2013-12-01 08:52:00,
2013-12-01 03:53:00,69.5,66.4,30.01,NE,54,4.0,7.0,90,0.00,,FEW,0.00,0.00,VWS V14.01,2013-12-01 08:53:00,
2013-12-01 03:54:00,69.5,66.4,30.01,NE,39,3.0,7.0,90,0.00,,FEW,0.00,0.00,VWS V14.01,2013-12-01 08:54:00,
2013-12-01 03:56:00,69.5,66.4,30.01,NNE,30,3.0,7.0,90,0.00,,FEW,0.00,0.00,VWS V14.01,2013-12-01 08:56:00,
2013-12-01 03:57:00,69.5,66.4,30.01,NE,43,0.0,7.0,90,0.00,,FEW,0.00,0.00,VWS V14.01,2013-12-01 08:57:00,
2013-12-01 03:58:00,69.5,66.4,30.01,NE,48,3.0,7.0,90,0.00,,FEW,0.00,0.00,VWS V14.01,2013-12-01 08:58:00,
2013-12-01 03:59:00,69.5,66.4,30.01,NNE,29,5.0,7.0,90,0.00,,FEW,0.00,0.00,VWS V14.01,2013-12-01 08:59:00,
2013-12-01 04:01:00,69.4,66.3,30.01,NE,38,4.0,7.0,90,0.00,,FEW,0.00,0.00,VWS V14.01,2013-12-01 09:01:00,
2013-12-01 04:02:00,69.5,66.4,30.01,North,5,5.0,7.0,90,0.00,,FEW,0.00,0.00,VWS V14.01,2013-12-01 09:02:00,
2013-12-01 04:03:00,69.4,66.3,30.01,NE,46,4.0,7.0,90,0.00,,FEW,0.00,0.00,VWS V14.01,2013-12-01 09:03:00,
2013-12-01 04:04:00,69.4,66.3,30.01,NNE,17,3.0,7.0,90,0.00,,FEW,0.00,0.00,VWS V14.01,2013-12-01 09:04:00,
2013-12-01 04:06:00,69.4,66.3,30.01,North,355,5.0,8.0,90,0.00,,FEW,0.00,0.00,VWS V14.01,2013-12-01 09:06:00,
2013-12-01 04:07:00,69.4,66.3,30.01,NNE,23,6.0,8.0,90,0.00,,FEW,0.00,0.00,VWS V14.01,2013-12-01 09:07:00,
2013-12-01 04:08:00,69.4,66.3,30.01,NNE,24,3.0,8.0,90,0.00,,FEW,0.00,0.00,VWS V14.01,2013-12-01 09:08:00,
2013-12-01 04:09:00,69.4,66.3,30.01,NNE,21,4.0,8.0,90,0.00,,FEW,0.00,0.00,VWS V14.01,2013-12-01 09:09:00,
2013-12-01 04:11:00,69.4,66.3,30.01,NNE,22,5.0,8.0,90,0.00,,FEW,0.00,0.00,VWS V14.01,2013-12-01 09:11:00,
2013-12-01 04:12:00,69.4,66.3,30.01,NNE,28,3.0,10.0,90,0.00,,FEW,0.00,0.00,VWS V14.01,2013-12-01 09:12:00,
2013-12-01 04:13:00,69.4,66.3,30.01,ENE,67,8.0,10.0,90,0.00,,FEW,0.00,0.00,VWS V14.01,2013-12-01 09:13:00,
2013-12-01 04:14:00,69.4,66.3,30.01,NNE,27,6.0,12.0,90,0.00,,FEW,0.00,0.00,VWS V14.01,2013-12-01 09:14:00,
2013-12-01 04:15:00,69.4,66.3,30.01,North,360,8.0,12.0,90,0.00,,FEW,0.00,0.00,VWS V14.01,2013-12-01 09:15:00,
2013-12-01 04:16:00,69.4,66.3,30.01,NNE,30,6.0,12.0,90,0.00,,FEW,0.00,0.00,VWS V14.01,2013-12-01 09:16:00,
2013-12-01 04:17:00,69.4,66.3,30.01,NE,44,2.0,12.0,90,0.00,,FEW,0.00,0.00,VWS V14.01,2013-12-01 09:17:00,
2013-12-01 04:18:00,69.4,66.3,30.01,NNE,23,3.0,12.0,90,0.00,,FEW,0.00,0.00,VWS V14.01,2013-12-01 09:18:00,
2013-12-01 04:19:00,69.4,66.3,30.01,NE,34,2.0,12.0,90,0.00,,FEW,0.00,0.00,VWS V14.01,2013-12-01 09:19:00,
2013-12-01 04:20:00,69.4,66.3,30.01,NE,46,3.0,12.0,90,0.00,,FEW,0.00,0.00,VWS V14.01,2013-12-01 09:20:00,
2013-12-01 04:21:00,69.4,66.3,30.01,NNE,29,4.0,4.0,90,0.00,,FEW,0.00,0.00,VWS V14.01,2013-12-01 09:21:00,
2013-12-01 04:22:00,69.4,66.3,30.01,NNE,24,3.0,8.0,90,0.00,,FEW,0.00,0.00,VWS V14.01,2013-12-01 09:22:00,
2013-12-01 04:23:00,69.4,66.3,30.01,NE,42,4.0,8.0,90,0.00,,FEW,0.00,0.00,VWS V14.01,2013-12-01 09:23:00,
2013-12-01 04:24:00,69.5,66.4,30.01,NNE,26,5.0,11.0,90,0.00,,FEW,0.00,0.00,VWS V14.01,2013-12-01 09:24:00,
2013-12-01 04:25:00,69.5,66.4,30.01,North,355,4.0,11.0,90,0.00,,FEW,0.00,0.00,VWS V14.01,2013-12-01 09:25:00,
2013-12-01 04:26:00,69.4,66.3,30.01,North,5,7.0,11.0,90,0.00,,FEW,0.00,0.00,VWS V14.01,2013-12-01 09:26:00,
2013-12-01 04:27:00,69.4,66.3,30.01,NE,40,5.0,11.0,90,0.00,,FEW,0.00,0.00,VWS V14.01,2013-12-01 09:27:00,
2013-12-01 04:28:00,69.5,66.4,30.01,NNE,29,4.0,11.0,90,0.00,,FEW,0.00,0.00,VWS V14.01,2013-12-01 09:28:00,
2013-12-01 04:29:00,69.4,66.3,30.01,NNE,21,8.0,11.0,90,0.00,,FEW,0.00,0.00,VWS V14.01,2013-12-01 09:29:00,
2013-12-01 04:30:00,69.5,66.4,30.02,NNE,32,4.0,11.0,90,0.00,,FEW,0.00,0.00,VWS V14.01,2013-12-01 09:30:00,
2013-12-01 04:31:00,69.4,66.3,30.02,NE,47,4.0,4.0,90,0.00,,FEW,0.00,0.00,VWS V14.01,2013-12-01 09:31:00,
2013-12-01 04:32:00,69.4,66.3,30.02,NE,42,6.0,9.0,90,0.00,,FEW,0.00,0.00,VWS V14.01,2013-12-01 09:32:00,
2013-12-01 04:34:00,69.5,66.4,30.02,NE,41,3.0,9.0,90,0.00,,FEW,0.00,0.00,VWS V14.01,2013-12-01 09:34:00,
2013-12-01 04:35:00,69.5,66.4,30.02,NNE,33,6.0,9.0,90,0.00,,FEW,0.00,0.00,VWS V14.01,2013-12-01 09:35:00,
2013-12-01 04:36:00,69.5,66.4,30.02,NNE,20,6.0,9.0,90,0.00,,FEW,0.00,0.00,VWS V14.01,2013-12-01 09:36:00,
2013-12-01 04:37:00,69.5,66.4,30.02,NNE,30,8.0,9.0,90,0.00,,FEW,0.00,0.00,VWS V14.01,2013-12-01 09:37:00,
2013-12-01 04:39:00,69.5,66.4,30.02,NE,43,4.0,10.0,90,0.00,,FEW,0.00,0.00,VWS V14.01,2013-12-01 09:39:00,
2013-12-01 04:40:00,69.5,66.4,30.02,NNE,22,7.0,10.0,90,0.00,,FEW,0.00,0.00,VWS V14.01,2013-12-01 09:40:00,
2013-12-01 04:41:00,69.5,66.4,30.02,North,11,3.0,5.0,90,0.00,,FEW,0.00,0.00,VWS V14.01,2013-12-01 09:41:00,
2013-12-01 04:42:00,69.5,66.4,30.02,NNE,24,5.0,6.0,90,0.00,,FEW,0.00,0.00,VWS V14.01,2013-12-01 09:42:00,
2013-12-01 04:44:00,69.5,66.4,30.02,NE,42,3.0,8.0,90,0.00,,FEW,0.00,0.00,VWS V14.01,2013-12-01 09:44:00,
2013-12-01 04:45:00,69.5,66.4,30.02,NE,41,10.0,10.0,90,0.00,,FEW,0.00,0.00,VWS V14.01,2013-12-01 09:45:00,
2013-12-01 04:46:00,69.5,66.4,30.02,NNE,30,5.0,10.0,90,0.00,,FEW,0.00,0.00,VWS V14.01,2013-12-01 09:46:00,
2013-12-01 04:47:00,69.5,66.4,30.02,NNE,22,8.0,10.0,90,0.00,,FEW,0.00,0.00,VWS V14.01,2013-12-01 09:47:00,
2013-12-01 04:50:00,69.5,66.4,30.02,NE,39,6.0,10.0,90,0.00,,FEW,0.00,0.00,VWS V14.01,2013-12-01 09:50:00,
2013-12-01 04:51:00,69.5,66.4,30.02,NNE,27,2.0,10.0,90,0.00,,FEW,0.00,0.00,VWS V14.01,2013-12-01 09:51:00,
2013-12-01 04:52:00,69.5,66.4,30.02,NE,49,5.0,8.0,90,0.00,,FEW,0.00,0.00,VWS V14.01,2013-12-01 09:52:00,
2013-12-01 04:55:00,69.4,66.3,30.02,NNE,16,4.0,8.0,90,0.00,,FEW,0.00,0.00,VWS V14.01,2013-12-01 09:55:00,
2013-12-01 04:56:00,69.4,66.3,30.02,NE,43,5.0,8.0,90,0.00,,FEW,0.00,0.00,VWS V14.01,2013-12-01 09:56:00,
2013-12-01 04:57:00,69.4,66.3,30.02,NE,36,5.0,8.0,90,0.00,,FEW,0.00,0.00,VWS V14.01,2013-12-01 09:57:00,
2013-12-01 05:00:00,69.4,66.3,30.01,NNE,15,2.0,8.0,90,0.00,,FEW,0.00,0.00,VWS V14.01,2013-12-01 10:00:00,
2013-12-01 05:01:00,69.4,66.3,30.01,NE,49,1.0,8.0,90,0.00,,FEW,0.00,0.00,VWS V14.01,2013-12-01 10:01:00,
2013-12-01 05:02:00,69.4,66.3,30.01,NNE,32,3.0,4.0,90,0.00,,FEW,0.00,0.00,VWS V14.01,2013-12-01 10:02:00,
2013-12-01 05:06:00,69.4,66.3,30.01,NE,38,5.0,8.0,90,0.00,,FEW,0.00,0.00,VWS V14.01,2013-12-01 10:06:00,
2013-12-01 05:07:00,69.4,66.3,30.01,NNE,32,5.0,8.0,90,0.00,,FEW,0.00,0.00,VWS V14.01,2013-12-01 10:07:00,
2013-12-01 05:11:00,69.3,66.2,30.01,NE,39,7.0,7.0,90,0.00,,FEW,0.00,0.00,VWS V14.01,2013-12-01 10:11:00,
2013-12-01 05:12:00,69.3,66.2,30.01,NE,52,2.0,7.0,90,0.00,,FEW,0.00,0.00,VWS V14.01,2013-12-01 10:12:00,
2013-12-01 05:16:00,69.3,66.2,30.02,NE,46,1.0,7.0,90,0.00,,FEW,0.00,0.00,VWS V14.01,2013-12-01 10:16:00,
2013-12-01 05:17:00,69.3,66.2,30.02,NNW,343,5.0,8.0,90,0.00,,FEW,0.00,0.00,VWS V14.01,2013-12-01 10:17:00,
2013-12-01 05:18:00,69.3,66.2,30.02,NE,34,1.0,8.0,90,0.00,,FEW,0.00,0.00,VWS V14.01,2013-12-01 10:18:00,
2013-12-01 05:21:00,69.3,66.2,30.02,NE,36,5.0,5.0,90,0.00,,FEW,0.00,0.00,VWS V14.01,2013-12-01 10:21:00,
2013-12-01 05:22:00,69.3,66.2,30.02,NE,42,3.0,7.0,90,0.00,,FEW,0.00,0.00,VWS V14.01,2013-12-01 10:22:00,
2013-12-01 05:23:00,69.3,66.2,30.02,NNE,28,2.0,7.0,90,0.00,,FEW,0.00,0.00,VWS V14.01,2013-12-01 10:23:00,
2013-12-01 05:26:00,69.3,66.2,30.02,North,9,3.0,9.0,90,0.00,,FEW,0.00,0.00,VWS V14.01,2013-12-01 10:26:00,
2013-12-01 05:27:00,69.3,66.2,30.02,NNE,19,3.0,9.0,90,0.00,,FEW,0.00,0.00,VWS V14.01,2013-12-01 10:27:00,
2013-12-01 05:28:00,69.2,66.2,30.02,NNE,26,3.0,9.0,90,0.00,,FEW,0.00,0.00,VWS V14.01,2013-12-01 10:28:00,
2013-12-01 05:32:00,69.3,66.2,30.02,NNE,24,4.0,8.0,90,0.00,,FEW,0.00,0.00,VWS V14.01,2013-12-01 10:32:00,
2013-12-01 05:33:00,69.2,66.2,30.02,NNE,25,3.0,8.0,90,0.00,,FEW,0.00,0.00,VWS V14.01,2013-12-01 10:33:00,
2013-12-01 05:37:00,69.2,66.2,30.02,NNE,30,2.0,8.0,90,0.00,,FEW,0.00,0.00,VWS V14.01,2013-12-01 10:37:00,
2013-12-01 05:38:00,69.2,66.2,30.02,North,9,4.0,8.0,90,0.00,,FEW,0.00,0.00,VWS V14.01,2013-12-01 10:38:00,
2013-12-01 05:39:00,69.2,66.2,30.02,North,355,6.0,8.0,90,0.00,,FEW,0.00,0.00,VWS V14.01,2013-12-01 10:39:00,
2013-12-01 05:42:00,69.2,66.2,30.02,NE,34,5.0,5.0,90,0.00,,FEW,0.00,0.00,VWS V14.01,2013-12-01 10:42:00,
2013-12-01 05:43:00,69.2,66.2,30.02,NE,42,3.0,6.0,90,0.00,,FEW,0.00,0.00,VWS V14.01,2013-12-01 10:43:00,
2013-12-01 05:45:00,69.2,66.2,30.02,North,355,9.0,9.0,90,0.00,,FEW,0.00,0.00,VWS V14.01,2013-12-01 10:45:00,
2013-12-01 05:47:00,69.1,66.1,30.03,NNE,20,4.0,9.0,90,0.00,,FEW,0.00,0.00,VWS V14.01,2013-12-01 10:47:00,
2013-12-01 05:48:00,69.1,66.1,30.03,NNE,21,3.0,9.0,90,0.00,,FEW,0.00,0.00,VWS V14.01,2013-12-01 10:48:00,
2013-12-01 05:50:00,69.1,66.1,30.03,NE,45,2.0,9.0,90,0.00,,FEW,0.00,0.00,VWS V14.01,2013-12-01 10:50:00,
2013-12-01 05:52:00,69.1,66.1,30.03,North,11,4.0,7.0,90,0.00,,FEW,0.00,0.00,VWS V14.01,2013-12-01 10:52:00,
2013-12-01 05:53:00,69.1,66.1,30.03,NNE,26,8.0,8.0,90,0.00,,FEW,0.00,0.00,VWS V14.01,2013-12-01 10:53:00,
2013-12-01 05:54:00,69.1,66.1,30.03,NNE,28,3.0,8.0,90,0.00,,FEW,0.00,0.00,VWS V14.01,2013-12-01 10:54:00,
2013-12-01 05:55:00,69.1,66.1,30.03,NE,34,3.0,8.0,90,0.00,,FEW,0.00,0.00,VWS V14.01,2013-12-01 10:55:00,
2013-12-01 05:57:00,69.1,66.1,30.03,NNE,26,2.0,8.0,90,0.00,,FEW,0.00,0.00,VWS V14.01,2013-12-01 10:57:00,
2013-12-01 05:58:00,69.1,66.1,30.03,NE,39,5.0,8.0,90,0.00,,FEW,0.00,0.00,VWS V14.01,2013-12-01 10:58:00,
2013-12-01 05:59:00,69.1,66.1,30.03,NE,45,4.0,8.0,90,0.00,,FEW,0.00,0.00,VWS V14.01,2013-12-01 10:59:00,
2013-12-01 06:00:00,69.0,65.9,30.03,NNE,27,3.0,8.0,90,0.00,,FEW,0.00,0.00,VWS V14.01,2013-12-01 11:00:00,
2013-12-01 06:03:00,69.0,65.9,30.03,NNE,15,5.0,7.0,90,0.00,,FEW,0.00,0.00,VWS V14.01,2013-12-01 11:03:00,
2013-12-01 06:04:00,69.0,65.9,30.03,NE,47,3.0,8.0,90,0.00,,FEW,0.00,0.00,VWS V14.01,2013-12-01 11:04:00,
2013-12-01 06:06:00,69.0,65.9,30.03,NNE,21,6.0,9.0,90,0.00,,FEW,0.00,0.00,VWS V14.01,2013-12-01 11:06:00,
2013-12-01 06:08:00,69.1,66.1,30.03,NNE,17,7.0,9.0,90,0.00,,FEW,0.00,0.00,VWS V14.01,2013-12-01 11:08:00,
2013-12-01 06:09:00,69.0,65.9,30.03,NE,35,3.0,9.0,90,0.00,,FEW,0.00,0.00,VWS V14.01,2013-12-01 11:09:00,
2013-12-01 06:10:00,69.0,65.9,30.03,NNE,30,4.0,9.0,90,0.00,,FEW,0.00,0.00,VWS V14.01,2013-12-01 11:10:00,
2013-12-01 06:11:00,69.0,65.9,30.03,NNE,17,5.0,9.0,90,0.00,,FEW,0.00,0.00,VWS V14.01,2013-12-01 11:11:00,
2013-12-01 06:13:00,69.0,65.9,30.03,NE,35,5.0,12.0,90,0.00,,FEW,0.00,0.00,VWS V14.01,2013-12-01 11:13:00,
2013-12-01 06:14:00,69.0,65.9,30.03,NE,38,3.0,12.0,90,0.00,,FEW,0.00,0.00,VWS V14.01,2013-12-01 11:14:00,
2013-12-01 06:15:00,69.0,65.9,30.03,North,9,5.0,12.0,90,0.00,,FEW,0.00,0.00,VWS V14.01,2013-12-01 11:15:00,
2013-12-01 06:16:00,69.0,65.9,30.03,NNE,18,4.0,12.0,90,0.00,,FEW,0.00,0.00,VWS V14.01,2013-12-01 11:16:00,
2013-12-01 06:18:00,69.0,65.9,30.03,NNE,29,5.0,12.0,90,0.00,,FEW,0.00,0.00,VWS V14.01,2013-12-01 11:18:00,
2013-12-01 06:19:00,69.0,65.9,30.03,NNE,16,3.0,12.0,90,0.00,,FEW,0.00,0.00,VWS V14.01,2013-12-01 11:19:00,
2013-12-01 06:20:00,69.0,65.9,30.03,North,11,2.0,12.0,90,0.00,,FEW,0.00,0.00,VWS V14.01,2013-12-01 11:20:00,
2013-12-01 06:22:00,69.0,65.9,30.03,North,355,3.0,6.0,90,0.00,,FEW,0.00,0.00,VWS V14.01,2013-12-01 11:22:00,
2013-12-01 06:23:00,68.9,65.8,30.03,NNE,14,2.0,6.0,90,0.00,,FEW,0.00,0.00,VWS V14.01,2013-12-01 11:23:00,
2013-12-01 06:24:00,68.9,65.8,30.03,NNE,22,3.0,6.0,90,0.00,,FEW,0.00,0.00,VWS V14.01,2013-12-01 11:24:00,
2013-12-01 06:25:00,68.9,65.8,30.03,NNE,20,4.0,6.0,90,0.00,,FEW,0.00,0.00,VWS V14.01,2013-12-01 11:25:00,
2013-12-01 06:27:00,68.9,65.8,30.03,NE,49,4.0,6.0,90,0.00,,FEW,0.00,0.00,VWS V14.01,2013-12-01 11:27:00,
2013-12-01 06:28:00,68.8,65.8,30.03,NNE,24,3.0,6.0,90,0.00,,FEW,0.00,0.00,VWS V14.01,2013-12-01 11:28:00,
2013-12-01 06:29:00,68.8,65.8,30.03,NNE,27,3.0,6.0,90,0.00,,FEW,0.00,0.00,VWS V14.01,2013-12-01 11:29:00,
2013-12-01 06:30:00,68.8,65.8,30.03,NNE,27,1.0,6.0,90,0.00,,FEW,0.00,0.00,VWS V14.01,2013-12-01 11:30:00,
2013-12-01 06:32:00,68.8,65.8,30.03,NNE,20,6.0,6.0,90,0.00,,FEW,0.00,0.00,VWS V14.01,2013-12-01 11:32:00,
2013-12-01 06:33:00,68.8,65.8,30.03,NNE,12,1.0,6.0,90,0.00,,FEW,0.00,0.00,VWS V14.01,2013-12-01 11:33:00,
2013-12-01 06:34:00,68.8,65.8,30.03,North,5,7.0,7.0,90,0.00,,FEW,0.00,0.00,VWS V14.01,2013-12-01 11:34:00,
2013-12-01 06:35:00,68.8,65.8,30.03,NE,36,1.0,7.0,90,0.00,,FEW,0.00,0.00,VWS V14.01,2013-12-01 11:35:00,
2013-12-01 06:37:00,68.8,65.8,30.03,NNE,28,6.0,7.0,90,0.00,,FEW,0.00,0.00,VWS V14.01,2013-12-01 11:37:00,
2013-12-01 06:38:00,68.8,65.8,30.03,NNE,21,1.0,7.0,90,0.00,,FEW,0.00,0.00,VWS V14.01,2013-12-01 11:38:00,
2013-12-01 06:39:00,68.8,65.8,30.03,NNE,26,0.0,7.0,90,0.00,,FEW,0.00,0.00,VWS V14.01,2013-12-01 11:39:00,
2013-12-01 06:40:00,68.7,65.7,30.03,NNE,25,1.0,7.0,90,0.00,,FEW,0.00,0.00,VWS V14.01,2013-12-01 11:40:00,
2013-12-01 06:42:00,68.7,65.7,30.03,North,355,2.0,6.0,90,0.00,,FEW,0.00,0.00,VWS V14.01,2013-12-01 11:42:00,
2013-12-01 06:43:00,68.7,65.7,30.03,NE,41,6.0,6.0,90,0.00,,FEW,0.00,0.00,VWS V14.01,2013-12-01 11:43:00,
2013-12-01 06:44:00,68.7,65.7,30.03,North,5,3.0,6.0,90,0.00,,FEW,0.00,0.00,VWS V14.01,2013-12-01 11:44:00,
2013-12-01 06:45:00,68.7,65.7,30.03,NNE,13,1.0,6.0,90,0.00,,FEW,0.00,0.00,VWS V14.01,2013-12-01 11:45:00,
2013-12-01 06:46:00,68.7,65.7,30.03,NNE,13,1.0,6.0,90,0.00,,FEW,0.00,0.00,VWS V14.01,2013-12-01 11:46:00,
2013-12-01 06:48:00,68.6,65.6,30.03,NNE,19,5.0,6.0,90,0.00,,FEW,0.00,0.00,VWS V14.01,2013-12-01 11:48:00,
2013-12-01 06:50:00,68.6,65.6,30.03,NE,56,4.0,6.0,90,0.00,,FEW,0.00,0.00,VWS V14.01,2013-12-01 11:50:00,
2013-12-01 06:51:00,68.6,65.6,30.03,NNE,28,2.0,2.0,90,0.00,,FEW,0.00,0.00,VWS V14.01,2013-12-01 11:51:00,
2013-12-01 06:53:00,68.6,65.6,30.03,NE,38,6.0,6.0,90,0.00,,FEW,0.00,5.00,VWS V14.01,2013-12-01 11:53:00,
2013-12-01 06:54:00,68.6,65.6,30.03,NNE,22,5.0,6.0,90,0.00,,FEW,0.00,5.00,VWS V14.01,2013-12-01 11:54:00,
2013-12-01 06:55:00,68.7,65.7,30.03,NE,34,2.0,6.0,90,0.00,,FEW,0.00,5.00,VWS V14.01,2013-12-01 11:55:00,
2013-12-01 06:56:00,68.6,65.6,30.03,NNE,19,5.0,6.0,90,0.00,,FEW,0.00,5.00,VWS V14.01,2013-12-01 11:56:00,
2013-12-01 06:59:00,68.6,65.9,30.03,NE,35,1.0,6.0,91,0.00,,FEW,0.00,7.00,VWS V14.01,2013-12-01 11:59:00,
2013-12-01 07:00:00,68.6,65.9,30.04,NNE,22,6.0,7.0,91,0.00,,FEW,0.00,9.00,VWS V14.01,2013-12-01 12:00:00,
2013-12-01 07:01:00,68.6,65.6,30.04,NNE,30,1.0,7.0,90,0.00,,FEW,0.00,9.00,VWS V14.01,2013-12-01 12:01:00,
2013-12-01 07:04:00,68.6,65.9,30.04,North,351,4.0,6.0,91,0.00,,FEW,0.00,12.00,VWS V14.01,2013-12-01 12:04:00,
2013-12-01 07:05:00,68.6,65.9,30.04,NNE,31,6.0,6.0,91,0.00,,FEW,0.00,12.00,VWS V14.01,2013-12-01 12:05:00,
2013-12-01 07:06:00,68.6,65.9,30.04,NE,35,2.0,6.0,91,0.00,,FEW,0.00,14.00,VWS V14.01,2013-12-01 12:06:00,
2013-12-01 07:09:00,68.6,65.9,30.04,NNE,25,3.0,8.0,91,0.00,,FEW,0.00,18.00,VWS V14.01,2013-12-01 12:09:00,
2013-12-01 07:10:00,68.7,66.0,30.04,NNE,31,1.0,8.0,91,0.00,,FEW,0.00,18.00,VWS V14.01,2013-12-01 12:10:00,
2013-12-01 07:11:00,68.7,66.0,30.04,NE,46,4.0,4.0,91,0.00,,FEW,0.00,18.00,VWS V14.01,2013-12-01 12:11:00,
2013-12-01 07:14:00,68.7,66.0,30.04,NNE,33,3.0,8.0,91,0.00,,FEW,0.00,30.00,VWS V14.01,2013-12-01 12:14:00,
2013-12-01 07:15:00,68.7,66.0,30.05,NNE,19,4.0,8.0,91,0.00,,FEW,0.00,33.00,VWS V14.01,2013-12-01 12:15:00,
2013-12-01 07:16:00,68.7,66.0,30.05,NNE,26,3.0,8.0,91,0.00,,FEW,0.00,37.00,VWS V14.01,2013-12-01 12:16:00,
2013-12-01 07:19:00,68.8,66.1,30.05,NNE,26,3.0,8.0,91,0.00,,FEW,0.00,44.00,VWS V14.01,2013-12-01 12:19:00,
2013-12-01 07:20:00,68.8,66.1,30.05,NNE,32,8.0,8.0,91,0.00,,FEW,0.00,46.00,VWS V14.01,2013-12-01 12:20:00,
2013-12-01 07:21:00,68.8,66.1,30.05,North,5,5.0,5.0,91,0.00,,FEW,0.00,47.00,VWS V14.01,2013-12-01 12:21:00,
2013-12-01 07:22:00,68.8,66.1,30.05,NE,40,4.0,5.0,91,0.00,,FEW,0.00,51.00,VWS V14.01,2013-12-01 12:22:00,
2013-12-01 07:24:00,68.8,66.1,30.05,NE,56,1.0,7.0,91,0.00,,FEW,0.00,58.00,VWS V14.01,2013-12-01 12:24:00,
2013-12-01 07:25:00,68.8,66.1,30.05,NE,56,2.0,7.0,91,0.00,,FEW,0.00,58.00,VWS V14.01,2013-12-01 12:25:00,
2013-12-01 07:26:00,68.8,66.1,30.05,NNE,26,3.0,7.0,91,0.00,,FEW,0.00,62.00,VWS V14.01,2013-12-01 12:26:00,
2013-12-01 07:27:00,68.9,66.2,30.05,NNE,29,8.0,8.0,91,0.00,,FEW,0.00,63.00,VWS V14.01,2013-12-01 12:27:00,
2013-12-01 07:30:00,68.9,66.2,30.05,NNE,22,2.0,9.0,91,0.00,,FEW,0.00,70.00,VWS V14.01,2013-12-01 12:30:00,
2013-12-01 07:31:00,68.9,66.2,30.05,NE,36,4.0,8.0,91,0.00,,FEW,0.00,77.00,VWS V14.01,2013-12-01 12:31:00,
2013-12-01 07:32:00,68.9,66.2,30.05,NNE,26,2.0,8.0,91,0.00,,FEW,0.00,81.00,VWS V14.01,2013-12-01 12:32:00,
2013-12-01 07:33:00,68.9,66.2,30.05,NNE,29,2.0,8.0,91,0.00,,FEW,0.00,81.00,VWS V14.01,2013-12-01 12:33:00,
2013-12-01 07:35:00,68.9,66.2,30.05,NE,38,3.0,8.0,91,0.00,,FEW,0.00,86.00,VWS V14.01,2013-12-01 12:35:00,
2013-12-01 07:36:00,68.9,66.2,30.05,ENE,61,7.0,8.0,91,0.00,,FEW,0.00,90.00,VWS V14.01,2013-12-01 12:36:00,
2013-12-01 07:38:00,69.0,65.9,30.05,North,360,6.0,8.0,90,0.00,,FEW,0.00,97.00,VWS V14.01,2013-12-01 12:38:00,
2013-12-01 07:41:00,69.0,66.3,30.05,NNE,32,5.0,8.0,91,0.00,,FEW,0.00,97.00,VWS V14.01,2013-12-01 12:41:00,
2013-12-01 07:43:00,69.1,66.4,30.05,NNE,33,5.0,6.0,91,0.00,,FEW,0.00,109.00,VWS V14.01,2013-12-01 12:43:00,
2013-12-01 07:46:00,69.2,66.2,30.05,NNE,28,2.0,12.0,90,0.00,,FEW,0.00,120.00,VWS V14.01,2013-12-01 12:46:00,
2013-12-01 07:47:00,69.2,66.2,30.05,North,360,5.0,12.0,90,0.00,,FEW,0.00,118.00,VWS V14.01,2013-12-01 12:47:00,
2013-12-01 07:48:00,69.2,66.2,30.05,North,5,4.0,12.0,90,0.00,,FEW,0.00,121.00,VWS V14.01,2013-12-01 12:48:00,
2013-12-01 07:51:00,69.3,66.2,30.05,North,360,3.0,3.0,90,0.00,,FEW,0.00,135.00,VWS V14.01,2013-12-01 12:51:00,
2013-12-01 07:52:00,69.3,66.2,30.05,NE,44,3.0,8.0,90,0.00,,FEW,0.00,139.00,VWS V14.01,2013-12-01 12:52:00,
2013-12-01 07:53:00,69.4,66.3,30.05,NE,43,4.0,8.0,90,0.00,,FEW,0.00,142.00,VWS V14.01,2013-12-01 12:53:00,
2013-12-01 07:56:00,69.5,66.4,30.05,NE,42,3.0,8.0,90,0.00,,FEW,0.00,151.00,VWS V14.01,2013-12-01 12:56:00,
2013-12-01 07:57:00,69.5,66.4,30.05,NE,40,3.0,8.0,90,0.00,,FEW,0.00,155.00,VWS V14.01,2013-12-01 12:57:00,
2013-12-01 07:58:00,69.6,66.5,30.05,NNE,17,4.0,8.0,90,0.00,,FEW,0.00,160.00,VWS V14.01,2013-12-01 12:58:00,
2013-12-01 07:59:00,69.6,66.5,30.05,NE,39,3.0,8.0,90,0.00,,FEW,0.00,160.00,VWS V14.01,2013-12-01 12:59:00,
2013-12-01 08:01:00,69.7,66.6,30.06,NE,36,3.0,3.0,90,0.00,,FEW,0.00,169.00,VWS V14.01,2013-12-01 13:01:00,
2013-12-01 08:02:00,69.7,66.6,30.06,NE,36,5.0,5.0,90,0.00,,FEW,0.00,169.00,VWS V14.01,2013-12-01 13:02:00,
2013-12-01 08:03:00,69.8,66.7,30.06,NNE,23,1.0,5.0,90,0.00,,FEW,0.00,176.00,VWS V14.01,2013-12-01 13:03:00,
2013-12-01 08:04:00,69.8,66.7,30.06,NNE,16,5.0,7.0,90,0.00,,FEW,0.00,179.00,VWS V14.01,2013-12-01 13:04:00,
2013-12-01 08:06:00,69.9,66.8,30.06,NNE,24,1.0,7.0,90,0.00,,FEW,0.00,186.00,VWS V14.01,2013-12-01 13:06:00,
2013-12-01 08:07:00,69.9,66.8,30.06,North,5,3.0,7.0,90,0.00,,FEW,0.00,186.00,VWS V14.01,2013-12-01 13:07:00,
2013-12-01 08:08:00,70.0,66.9,30.06,NNE,24,1.0,9.0,90,0.00,,FEW,0.00,193.00,VWS V14.01,2013-12-01 13:08:00,
2013-12-01 08:09:00,70.0,66.9,30.06,NE,34,5.0,9.0,90,0.00,,FEW,0.00,195.00,VWS V14.01,2013-12-01 13:09:00,
2013-12-01 08:11:00,70.1,67.0,30.06,NE,39,5.0,7.0,90,0.00,,FEW,0.00,202.00,VWS V14.01,2013-12-01 13:11:00,
2013-12-01 08:12:00,70.1,67.0,30.06,NE,45,4.0,7.0,90,0.00,,FEW,0.00,206.00,VWS V14.01,2013-12-01 13:12:00,
2013-12-01 08:13:00,70.1,66.7,30.06,NNE,14,3.0,7.0,89,0.00,,FEW,0.00,213.00,VWS V14.01,2013-12-01 13:13:00,
2013-12-01 08:14:00,70.1,66.7,30.06,NE,34,3.0,7.0,89,0.00,,FEW,0.00,213.00,VWS V14.01,2013-12-01 13:14:00,
2013-12-01 08:16:00,70.2,66.8,30.07,NNE,18,6.0,7.0,89,0.00,,FEW,0.00,218.00,VWS V14.01,2013-12-01 13:16:00,
2013-12-01 08:17:00,70.2,66.8,30.07,NNE,26,5.0,7.0,89,0.00,,FEW,0.00,221.00,VWS V14.01,2013-12-01 13:17:00,
2013-12-01 08:19:00,70.3,66.9,30.07,NNE,28,2.0,7.0,89,0.00,,FEW,0.00,227.00,VWS V14.01,2013-12-01 13:19:00,
2013-12-01 08:20:00,70.3,66.9,30.07,NE,56,8.0,8.0,89,0.00,,FEW,0.00,223.00,VWS V14.01,2013-12-01 13:20:00,
2013-12-01 08:21:00,70.3,66.9,30.07,NNE,25,7.0,7.0,89,0.00,,FEW,0.00,237.00,VWS V14.01,2013-12-01 13:21:00,
2013-12-01 08:22:00,70.4,67.0,30.07,NNE,15,5.0,8.0,89,0.00,,FEW,0.00,239.00,VWS V14.01,2013-12-01 13:22:00,
2013-12-01 08:23:00,70.4,67.0,30.07,NNE,27,3.0,8.0,89,0.00,,FEW,0.00,239.00,VWS V14.01,2013-12-01 13:23:00,
2013-12-01 08:24:00,70.4,67.0,30.07,NNE,32,3.0,8.0,89,0.00,,FEW,0.00,243.00,VWS V14.01,2013-12-01 13:24:00,
2013-12-01 08:25:00,70.4,67.0,30.07,North,5,3.0,8.0,89,0.00,,FEW,0.00,244.00,VWS V14.01,2013-12-01 13:25:00,
2013-12-01 08:26:00,70.5,67.1,30.07,NNE,19,8.0,8.0,89,0.00,,FEW,0.00,251.00,VWS V14.01,2013-12-01 13:26:00,
2013-12-01 08:27:00,70.6,67.2,30.07,ENE,57,5.0,8.0,89,0.00,,FEW,0.00,255.00,VWS V14.01,2013-12-01 13:27:00,
2013-12-01 08:28:00,70.6,67.2,30.07,ENE,59,1.0,8.0,89,0.00,,FEW,0.00,255.00,VWS V14.01,2013-12-01 13:28:00,
2013-12-01 08:29:00,70.6,67.2,30.07,NNE,30,4.0,8.0,89,0.00,,FEW,0.00,262.00,VWS V14.01,2013-12-01 13:29:00,
2013-12-01 08:30:00,70.6,67.2,30.08,NE,42,4.0,8.0,89,0.00,,FEW,0.00,265.00,VWS V14.01,2013-12-01 13:30:00,
2013-12-01 08:31:00,70.7,67.0,30.08,NE,38,2.0,4.0,88,0.00,,FEW,0.00,267.00,VWS V14.01,2013-12-01 13:31:00,
2013-12-01 08:33:00,70.8,67.1,30.08,NNE,24,4.0,5.0,88,0.00,,FEW,0.00,272.00,VWS V14.01,2013-12-01 13:33:00,
2013-12-01 08:34:00,70.8,67.1,30.08,NNE,20,4.0,7.0,88,0.00,,FEW,0.00,276.00,VWS V14.01,2013-12-01 13:34:00,
2013-12-01 08:35:00,70.9,67.2,30.08,NNE,23,2.0,7.0,88,0.00,,FEW,0.00,279.00,VWS V14.01,2013-12-01 13:35:00,
2013-12-01 08:36:00,70.9,67.2,30.08,NE,42,4.0,7.0,88,0.00,,FEW,0.00,283.00,VWS V14.01,2013-12-01 13:36:00,
2013-12-01 08:38:00,71.0,67.3,30.08,North,360,1.0,7.0,88,0.00,,FEW,0.00,290.00,VWS V14.01,2013-12-01 13:38:00,
2013-12-01 08:39:00,71.1,67.4,30.08,NE,51,7.0,7.0,88,0.00,,FEW,0.00,294.00,VWS V14.01,2013-12-01 13:39:00,
2013-12-01 08:40:00,71.1,67.4,30.08,NNE,22,3.0,7.0,88,0.00,,FEW,0.00,294.00,VWS V14.01,2013-12-01 13:40:00,
2013-12-01 08:42:00,71.1,67.4,30.08,NE,47,2.0,5.0,88,0.00,,FEW,0.00,302.00,VWS V14.01,2013-12-01 13:42:00,
2013-12-01 08:43:00,71.1,67.4,30.08,NNE,26,5.0,6.0,88,0.00,,FEW,0.00,306.00,VWS V14.01,2013-12-01 13:43:00,
2013-12-01 08:44:00,71.2,67.5,30.08,NNE,17,4.0,6.0,88,0.00,,FEW,0.00,308.00,VWS V14.01,2013-12-01 13:44:00,
2013-12-01 08:45:00,71.3,67.6,30.08,NNE,30,7.0,7.0,88,0.00,,FEW,0.00,309.00,VWS V14.01,2013-12-01 13:45:00,
2013-12-01 08:47:00,71.3,67.2,30.08,NNE,14,5.0,9.0,87,0.00,,FEW,0.00,313.00,VWS V14.01,2013-12-01 13:47:00,
2013-12-01 08:48:00,71.3,67.2,30.08,NNE,17,5.0,9.0,87,0.00,,FEW,0.00,320.00,VWS V14.01,2013-12-01 13:48:00,
2013-12-01 08:49:00,71.3,67.2,30.08,NNE,28,5.0,9.0,87,0.00,,FEW,0.00,325.00,VWS V14.01,2013-12-01 13:49:00,
2013-12-01 08:50:00,71.3,67.2,30.08,NNE,28,4.0,11.0,87,0.00,,FEW,0.00,330.00,VWS V14.01,2013-12-01 13:50:00,
2013-12-01 08:52:00,71.2,67.1,30.08,North,5,6.0,9.0,87,0.00,,FEW,0.00,336.00,VWS V14.01,2013-12-01 13:52:00,
2013-12-01 08:53:00,71.2,67.1,30.08,NNE,20,4.0,9.0,87,0.00,,FEW,0.00,339.00,VWS V14.01,2013-12-01 13:53:00,
2013-12-01 08:55:00,71.2,67.1,30.08,North,11,3.0,9.0,87,0.00,,FEW,0.00,345.00,VWS V14.01,2013-12-01 13:55:00,
2013-12-01 08:56:00,71.3,67.2,30.08,North,5,7.0,9.0,87,0.00,,FEW,0.00,348.00,VWS V14.01,2013-12-01 13:56:00,
2013-12-01 08:57:00,71.3,67.2,30.08,NNE,30,6.0,9.0,87,0.00,,FEW,0.00,352.00,VWS V14.01,2013-12-01 13:57:00,
2013-12-01 08:58:00,71.2,67.1,30.08,NE,40,4.0,9.0,87,0.00,,FEW,0.00,355.00,VWS V14.01,2013-12-01 13:58:00,
2013-12-01 08:59:00,71.2,67.1,30.08,NE,53,5.0,9.0,87,0.00,,FEW,0.00,357.00,VWS V14.01,2013-12-01 13:59:00,
2013-12-01 09:00:00,71.2,67.1,30.08,NNE,12,5.0,9.0,87,0.00,,FEW,0.00,359.00,VWS V14.01,2013-12-01 14:00:00,
2013-12-01 09:01:00,71.2,67.1,30.08,NE,39,7.0,9.0,87,0.00,,FEW,0.00,362.00,VWS V14.01,2013-12-01 14:01:00,
2013-12-01 09:02:00,71.2,67.1,30.08,North,5,8.0,9.0,87,0.00,,FEW,0.00,366.00,VWS V14.01,2013-12-01 14:02:00,
2013-12-01 09:03:00,71.2,67.1,30.08,North,5,8.0,10.0,87,0.00,,FEW,0.00,373.00,VWS V14.01,2013-12-01 14:03:00,
2013-12-01 09:05:00,71.2,67.1,30.08,NE,40,6.0,10.0,87,0.00,,FEW,0.00,378.00,VWS V14.01,2013-12-01 14:05:00,
2013-12-01 09:07:00,71.2,67.1,30.08,North,9,6.0,10.0,87,0.00,,FEW,0.00,381.00,VWS V14.01,2013-12-01 14:07:00,
2013-12-01 09:08:00,71.4,67.3,30.08,NNE,15,9.0,10.0,87,0.00,,FEW,0.00,387.00,VWS V14.01,2013-12-01 14:08:00,
2013-12-01 09:10:00,71.4,67.0,30.08,NNE,13,5.0,10.0,86,0.00,,FEW,0.00,392.00,VWS V14.01,2013-12-01 14:10:00,
2013-12-01 09:11:00,71.5,67.4,30.08,NNE,16,6.0,7.0,87,0.00,,FEW,0.00,394.00,VWS V14.01,2013-12-01 14:11:00,
2013-12-01 09:12:00,71.6,67.5,30.08,NNW,348,5.0,7.0,87,0.00,,FEW,0.00,397.00,VWS V14.01,2013-12-01 14:12:00,
2013-12-01 09:13:00,71.6,67.5,30.08,NNW,348,5.0,7.0,87,0.00,,FEW,0.00,397.00,VWS V14.01,2013-12-01 14:13:00,
2013-12-01 09:15:00,71.7,67.3,30.08,NNE,30,3.0,9.0,86,0.00,,FEW,0.00,406.00,VWS V14.01,2013-12-01 14:15:00,
2013-12-01 09:16:00,71.7,67.3,30.08,NNE,28,3.0,9.0,86,0.00,,FEW,0.00,410.00,VWS V14.01,2013-12-01 14:16:00,
2013-12-01 09:18:00,71.8,67.4,30.08,North,355,8.0,9.0,86,0.00,,FEW,0.00,415.00,VWS V14.01,2013-12-01 14:18:00,
2013-12-01 09:19:00,71.8,67.4,30.08,NNE,24,6.0,9.0,86,0.00,,FEW,0.00,418.00,VWS V14.01,2013-12-01 14:19:00,
2013-12-01 09:20:00,71.8,67.4,30.08,NNE,28,6.0,9.0,86,0.00,,FEW,0.00,420.00,VWS V14.01,2013-12-01 14:20:00,
2013-12-01 09:21:00,71.7,67.3,30.08,NNE,26,6.0,6.0,86,0.00,,FEW,0.00,424.00,VWS V14.01,2013-12-01 14:21:00,
2013-12-01 09:23:00,71.7,67.3,30.08,NNE,30,7.0,8.0,86,0.00,,FEW,0.00,429.00,VWS V14.01,2013-12-01 14:23:00,
2013-12-01 09:24:00,71.7,67.3,30.08,NE,50,5.0,8.0,86,0.00,,FEW,0.00,432.00,VWS V14.01,2013-12-01 14:24:00,
2013-12-01 09:25:00,71.7,67.3,30.08,NE,52,5.0,8.0,86,0.00,,FEW,0.00,434.00,VWS V14.01,2013-12-01 14:25:00,
2013-12-01 09:26:00,71.7,67.3,30.08,NE,34,4.0,8.0,86,0.00,,FEW,0.00,438.00,VWS V14.01,2013-12-01 14:26:00,
2013-12-01 09:28:00,71.7,67.3,30.08,NNE,30,4.0,8.0,86,0.00,,FEW,0.00,445.00,VWS V14.01,2013-12-01 14:28:00,
2013-12-01 09:29:00,71.7,67.3,30.08,NE,34,4.0,8.0,86,0.00,,FEW,0.00,450.00,VWS V14.01,2013-12-01 14:29:00,
2013-12-01 09:30:00,71.7,67.3,30.08,North,9,6.0,9.0,86,0.00,,FEW,0.00,454.00,VWS V14.01,2013-12-01 14:30:00,
2013-12-01 09:31:00,71.7,67.3,30.08,NNE,14,5.0,7.0,86,0.00,,FEW,0.00,457.00,VWS V14.01,2013-12-01 14:31:00,
2013-12-01 09:32:00,71.7,67.3,30.08,North,9,7.0,7.0,86,0.00,,FEW,0.00,457.00,VWS V14.01,2013-12-01 14:32:00,
2013-12-01 09:33:00,71.8,67.4,30.08,NE,46,6.0,7.0,86,0.00,,FEW,0.00,459.00,VWS V14.01,2013-12-01 14:33:00,
2013-12-01 09:35:00,71.8,67.4,30.08,NNE,30,5.0,9.0,86,0.00,,FEW,0.00,462.00,VWS V14.01,2013-12-01 14:35:00,
2013-12-01 09:36:00,71.8,67.4,30.08,NNW,342,3.0,9.0,86,0.00,,FEW,0.00,468.00,VWS V14.01,2013-12-01 14:36:00,
2013-12-01 09:37:00,71.8,67.4,30.08,NE,38,4.0,9.0,86,0.00,,FEW,0.00,471.00,VWS V14.01,2013-12-01 14:37:00,
2013-12-01 09:38:00,71.9,67.2,30.08,North,5,4.0,9.0,85,0.00,,FEW,0.00,471.00,VWS V14.01,2013-12-01 14:38:00,
2013-12-01 09:40:00,71.9,67.2,30.08,NNE,28,4.0,9.0,85,0.00,,FEW,0.00,478.00,VWS V14.01,2013-12-01 14:40:00,
2013-12-01 09:42:00,72.0,67.2,30.08,NNE,29,3.0,5.0,85,0.00,,FEW,0.00,485.00,VWS V14.01,2013-12-01 14:42:00,
2013-12-01 09:43:00,72.1,67.3,30.08,NNE,32,1.0,5.0,85,0.00,,FEW,0.00,487.00,VWS V14.01,2013-12-01 14:43:00,
2013-12-01 09:44:00,72.2,67.4,30.08,NE,36,2.0,5.0,85,0.00,,FEW,0.00,489.00,VWS V14.01,2013-12-01 14:44:00,
2013-12-01 09:45:00,72.3,67.5,30.08,NE,35,5.0,8.0,85,0.00,,FEW,0.00,492.00,VWS V14.01,2013-12-01 14:45:00,
2013-12-01 09:47:00,72.3,67.5,30.08,NNE,29,5.0,8.0,85,0.00,,FEW,0.00,496.00,VWS V14.01,2013-12-01 14:47:00,
2013-12-01 09:48:00,72.3,67.5,30.08,NNE,28,5.0,8.0,85,0.00,,FEW,0.00,497.00,VWS V14.01,2013-12-01 14:48:00,
2013-12-01 09:49:00,72.3,67.5,30.08,NNE,22,4.0,8.0,85,0.00,,FEW,0.00,501.00,VWS V14.01,2013-12-01 14:49:00,
2013-12-01 09:50:00,72.3,67.5,30.08,NE,42,5.0,8.0,85,0.00,,FEW,0.00,504.00,VWS V14.01,2013-12-01 14:50:00,
2013-12-01 09:51:00,72.3,67.5,30.08,NNE,22,7.0,8.0,85,0.00,,FEW,0.00,504.00,VWS V14.01,2013-12-01 14:51:00,
2013-12-01 09:52:00,72.4,67.6,30.08,NNE,16,5.0,9.0,85,0.00,,FEW,0.00,506.00,VWS V14.01,2013-12-01 14:52:00,
2013-12-01 09:53:00,72.4,67.6,30.08,NE,49,3.0,9.0,85,0.00,,FEW,0.00,512.00,VWS V14.01,2013-12-01 14:53:00,
2013-12-01 09:54:00,72.5,67.7,30.08,North,5,3.0,9.0,85,0.00,,FEW,0.00,513.00,VWS V14.01,2013-12-01 14:54:00,
2013-12-01 09:56:00,72.6,67.8,30.08,NNW,331,7.0,9.0,85,0.00,,FEW,0.00,515.00,VWS V14.01,2013-12-01 14:56:00,
2013-12-01 09:57:00,72.7,67.6,30.08,NNE,28,5.0,9.0,84,0.00,,FEW,0.00,522.00,VWS V14.01,2013-12-01 14:57:00,
2013-12-01 09:58:00,72.7,67.6,30.08,North,9,3.0,9.0,84,0.00,,FEW,0.00,524.00,VWS V14.01,2013-12-01 14:58:00,
2013-12-01 10:00:00,72.7,67.6,30.08,North,360,5.0,9.0,84,0.00,,FEW,0.00,527.00,VWS V14.01,2013-12-01 15:00:00,
2013-12-01 10:01:00,72.7,67.6,30.08,North,360,4.0,9.0,84,0.00,,FEW,0.00,529.00,VWS V14.01,2013-12-01 15:01:00,
2013-12-01 10:02:00,72.7,67.6,30.08,NNE,12,2.0,4.0,84,0.00,,FEW,0.00,534.00,VWS V14.01,2013-12-01 15:02:00,
2013-12-01 10:03:00,72.8,67.7,30.08,NNE,18,4.0,8.0,84,0.00,,FEW,0.00,534.00,VWS V14.01,2013-12-01 15:03:00,
2013-12-01 10:05:00,72.9,67.8,30.08,NNE,26,3.0,8.0,84,0.00,,FEW,0.00,538.00,VWS V14.01,2013-12-01 15:05:00,
2013-12-01 10:06:00,72.9,67.8,30.08,NE,34,3.0,8.0,84,0.00,,FEW,0.00,541.00,VWS V14.01,2013-12-01 15:06:00,
2013-12-01 10:08:00,73.0,67.9,30.08,NNE,33,3.0,8.0,84,0.00,,FEW,0.00,547.00,VWS V14.01,2013-12-01 15:08:00,
2013-12-01 10:11:00,73.2,67.7,30.08,North,11,4.0,7.0,83,0.00,,FEW,0.00,554.00,VWS V14.01,2013-12-01 15:11:00,
2013-12-01 10:13:00,73.1,67.6,30.08,NNE,18,8.0,8.0,83,0.00,,FEW,0.00,559.00,VWS V14.01,2013-12-01 15:13:00,
2013-12-01 10:16:00,73.1,67.6,30.08,NNE,15,5.0,9.0,83,0.00,,FEW,0.00,564.00,VWS V14.01,2013-12-01 15:16:00,
2013-12-01 10:18:00,73.1,67.6,30.08,North,5,4.0,9.0,83,0.00,,FEW,0.00,570.00,VWS V14.01,2013-12-01 15:18:00,
2013-12-01 10:19:00,73.1,67.6,30.08,NNE,29,8.0,9.0,83,0.00,,FEW,0.00,570.00,VWS V14.01,2013-12-01 15:19:00,
2013-12-01 10:21:00,73.1,67.6,30.08,North,11,5.0,8.0,83,0.00,,FEW,0.00,575.00,VWS V14.01,2013-12-01 15:21:00,
2013-12-01 10:24:00,73.2,67.7,30.08,North,11,3.0,8.0,83,0.00,,FEW,0.00,582.00,VWS V14.01,2013-12-01 15:24:00,
2013-12-01 10:26:00,73.2,67.7,30.08,NNE,32,4.0,9.0,83,0.00,,FEW,0.00,584.00,VWS V14.01,2013-12-01 15:26:00,
2013-12-01 10:29:00,73.3,67.8,30.08,NE,36,8.0,9.0,83,0.00,,FEW,0.00,589.00,VWS V14.01,2013-12-01 15:29:00,
2013-12-01 10:31:00,73.3,67.8,30.08,NNE,18,1.0,4.0,83,0.00,,FEW,0.00,592.00,VWS V14.01,2013-12-01 15:31:00,
2013-12-01 10:32:00,73.3,68.2,30.08,NNE,19,7.0,7.0,84,0.00,,FEW,0.00,592.00,VWS V14.01,2013-12-01 15:32:00,
2013-12-01 10:34:00,73.4,68.3,30.08,NE,36,2.0,7.0,84,0.00,,FEW,0.00,598.00,VWS V14.01,2013-12-01 15:34:00,
2013-12-01 10:35:00,73.5,68.4,30.08,NNE,28,3.0,7.0,84,0.00,,FEW,0.00,599.00,VWS V14.01,2013-12-01 15:35:00,
2013-12-01 10:36:00,73.8,68.7,30.08,NE,46,2.0,7.0,84,0.00,,FEW,0.00,603.00,VWS V14.01,2013-12-01 15:36:00,
2013-12-01 10:37:00,73.8,68.3,30.08,NNE,20,3.0,7.0,83,0.00,,FEW,0.00,603.00,VWS V14.01,2013-12-01 15:37:00,
2013-12-01 10:39:00,74.0,68.5,30.08,NNE,20,5.0,7.0,83,0.00,,FEW,0.00,606.00,VWS V14.01,2013-12-01 15:39:00,
2013-12-01 10:40:00,74.0,68.5,30.08,NNE,29,5.0,7.0,83,0.00,,FEW,0.00,610.00,VWS V14.01,2013-12-01 15:40:00,
2013-12-01 10:42:00,74.0,68.2,30.08,NNE,22,4.0,8.0,82,0.00,,FEW,0.00,612.00,VWS V14.01,2013-12-01 15:42:00,
2013-12-01 10:44:00,73.9,68.4,30.08,North,351,5.0,8.0,83,0.00,,FEW,0.00,617.00,VWS V14.01,2013-12-01 15:44:00,
2013-12-01 10:45:00,74.1,68.6,30.07,NNE,19,6.0,8.0,83,0.00,,FEW,0.00,619.00,VWS V14.01,2013-12-01 15:45:00,
2013-12-01 10:47:00,74.2,68.4,30.07,NNE,22,0.0,8.0,82,0.00,,FEW,0.00,621.00,VWS V14.01,2013-12-01 15:47:00,
2013-12-01 10:48:00,74.3,68.4,30.07,NNW,348,6.0,8.0,82,0.00,,FEW,0.00,621.00,VWS V14.01,2013-12-01 15:48:00,
2013-12-01 10:49:00,74.4,68.6,30.07,NE,55,4.0,8.0,82,0.00,,FEW,0.00,624.00,VWS V14.01,2013-12-01 15:49:00,
2013-12-01 10:50:00,74.3,68.4,30.07,NNE,24,4.0,8.0,82,0.00,,FEW,0.00,626.00,VWS V14.01,2013-12-01 15:50:00,
2013-12-01 10:52:00,74.3,68.4,30.07,NE,37,3.0,5.0,82,0.00,,FEW,0.00,629.00,VWS V14.01,2013-12-01 15:52:00,
2013-12-01 10:53:00,74.3,68.4,30.07,North,5,5.0,6.0,82,0.00,,FEW,0.00,629.00,VWS V14.01,2013-12-01 15:53:00,
2013-12-01 10:54:00,74.2,68.4,30.07,NE,46,3.0,6.0,82,0.00,,FEW,0.00,631.00,VWS V14.01,2013-12-01 15:54:00,
2013-12-01 10:55:00,74.1,68.3,30.07,NNE,24,3.0,6.0,82,0.00,,FEW,0.00,635.00,VWS V14.01,2013-12-01 15:55:00,
2013-12-01 10:56:00,74.2,68.4,30.07,NE,49,4.0,6.0,82,0.00,,FEW,0.00,635.00,VWS V14.01,2013-12-01 15:56:00,
2013-12-01 10:58:00,74.1,68.3,30.07,NE,38,4.0,6.0,82,0.00,,FEW,0.00,638.00,VWS V14.01,2013-12-01 15:58:00,
2013-12-01 10:59:00,74.2,68.4,30.07,NNE,25,2.0,6.0,82,0.00,,FEW,0.00,640.00,VWS V14.01,2013-12-01 15:59:00,
2013-12-01 11:00:00,74.2,68.4,30.07,NNE,21,4.0,6.0,82,0.00,,FEW,0.00,640.00,VWS V14.01,2013-12-01 16:00:00,
2013-12-01 11:01:00,74.3,68.4,30.07,NE,41,4.0,4.0,82,0.00,,FEW,0.00,640.00,VWS V14.01,2013-12-01 16:01:00,
2013-12-01 11:03:00,74.4,68.6,30.07,NNE,32,1.0,6.0,82,0.00,,FEW,0.00,643.00,VWS V14.01,2013-12-01 16:03:00,
2013-12-01 11:04:00,74.7,68.8,30.07,North,360,5.0,6.0,82,0.00,,FEW,0.00,647.00,VWS V14.01,2013-12-01 16:04:00,
2013-12-01 11:05:00,74.8,68.9,30.07,NNE,25,1.0,6.0,82,0.00,,FEW,0.00,649.00,VWS V14.01,2013-12-01 16:05:00,
2013-12-01 11:06:00,74.8,68.9,30.07,NNE,21,2.0,6.0,82,0.00,,FEW,0.00,649.00,VWS V14.01,2013-12-01 16:06:00,
2013-12-01 11:08:00,75.1,68.9,30.07,North,5,1.0,6.0,81,0.00,,FEW,0.00,650.00,VWS V14.01,2013-12-01 16:08:00,
2013-12-01 11:09:00,75.2,69.0,30.07,NE,36,2.0,6.0,81,0.00,,FEW,0.00,652.00,VWS V14.01,2013-12-01 16:09:00,
2013-12-01 11:11:00,75.1,68.9,30.07,NE,40,2.0,6.0,81,0.00,,FEW,0.00,656.00,VWS V14.01,2013-12-01 16:11:00,
2013-12-01 11:13:00,75.2,69.0,30.07,NE,34,4.0,5.0,81,0.00,,FEW,0.00,657.00,VWS V14.01,2013-12-01 16:13:00,
2013-12-01 11:14:00,75.2,68.6,30.07,NNE,26,3.0,6.0,80,0.00,,FEW,0.00,659.00,VWS V14.01,2013-12-01 16:14:00,
2013-12-01 11:16:00,75.1,68.9,30.06,NE,34,4.0,6.0,81,0.00,,FEW,0.00,661.00,VWS V14.01,2013-12-01 16:16:00,
2013-12-01 11:18:00,74.9,68.7,30.06,NNE,23,1.0,8.0,81,0.00,,FEW,0.00,663.00,VWS V14.01,2013-12-01 16:18:00,
2013-12-01 11:19:00,74.9,68.7,30.06,ENE,59,3.0,8.0,81,0.00,,FEW,0.00,663.00,VWS V14.01,2013-12-01 16:19:00,
2013-12-01 11:20:00,74.9,68.7,30.06,NE,40,3.0,8.0,81,0.00,,FEW,0.00,663.00,VWS V14.01,2013-12-01 16:20:00,
2013-12-01 11:21:00,74.8,68.6,30.06,NE,42,3.0,6.0,81,0.00,,FEW,0.00,666.00,VWS V14.01,2013-12-01 16:21:00,
2013-12-01 11:22:00,74.8,68.6,30.06,NE,43,6.0,6.0,81,0.00,,FEW,0.00,666.00,VWS V14.01,2013-12-01 16:22:00,
2013-12-01 11:23:00,74.7,68.5,30.06,NNE,24,2.0,6.0,81,0.00,,FEW,0.00,668.00,VWS V14.01,2013-12-01 16:23:00,
2013-12-01 11:25:00,74.8,68.6,30.06,NE,43,2.0,6.0,81,0.00,,FEW,0.00,670.00,VWS V14.01,2013-12-01 16:25:00,
2013-12-01 11:26:00,75.1,69.2,30.06,NNE,14,1.0,6.0,82,0.00,,FEW,0.00,671.00,VWS V14.01,2013-12-01 16:26:00,
2013-12-01 11:27:00,75.2,69.3,30.06,NNW,340,5.0,6.0,82,0.00,,FEW,0.00,671.00,VWS V14.01,2013-12-01 16:27:00,
2013-12-01 11:28:00,75.5,69.3,30.06,NNE,26,3.0,7.0,81,0.00,,FEW,0.00,673.00,VWS V14.01,2013-12-01 16:28:00,
2013-12-01 11:29:00,75.5,69.3,30.06,NNE,27,2.0,7.0,81,0.00,,FEW,0.00,673.00,VWS V14.01,2013-12-01 16:29:00,
2013-12-01 11:30:00,75.6,69.4,30.06,NNE,22,4.0,7.0,81,0.00,,FEW,0.00,673.00,VWS V14.01,2013-12-01 16:30:00,
2013-12-01 11:31:00,75.5,68.9,30.06,NNE,30,0.0,5.0,80,0.00,,FEW,0.00,675.00,VWS V14.01,2013-12-01 16:31:00,
2013-12-01 11:32:00,75.5,68.9,30.06,NNE,24,2.0,5.0,80,0.00,,FEW,0.00,675.00,VWS V14.01,2013-12-01 16:32:00,
2013-12-01 11:33:00,75.4,69.2,30.06,NNE,24,6.0,6.0,81,0.00,,FEW,0.00,675.00,VWS V14.01,2013-12-01 16:33:00,
2013-12-01 11:34:00,75.4,69.2,30.06,NE,40,3.0,6.0,81,0.00,,FEW,0.00,677.00,VWS V14.01,2013-12-01 16:34:00,
2013-12-01 11:35:00,75.3,68.7,30.06,NE,41,5.0,6.0,80,0.00,,FEW,0.00,679.00,VWS V14.01,2013-12-01 16:35:00,
2013-12-01 11:36:00,75.2,68.6,30.06,NE,44,4.0,7.0,80,0.00,,FEW,0.00,680.00,VWS V14.01,2013-12-01 16:36:00,
2013-12-01 11:37:00,75.2,68.6,30.06,NE,43,8.0,9.0,80,0.00,,FEW,0.00,680.00,VWS V14.01,2013-12-01 16:37:00,
2013-12-01 11:39:00,75.1,68.9,30.06,NNE,15,5.0,9.0,81,0.00,,FEW,0.00,680.00,VWS V14.01,2013-12-01 16:39:00,
2013-12-01 11:40:00,75.1,68.9,30.06,NNE,33,3.0,9.0,81,0.00,,FEW,0.00,682.00,VWS V14.01,2013-12-01 16:40:00,
2013-12-01 11:42:00,75.1,68.9,30.06,NE,34,1.0,5.0,81,0.00,,FEW,0.00,684.00,VWS V14.01,2013-12-01 16:42:00,
2013-12-01 11:44:00,75.3,69.1,30.06,NNE,13,5.0,6.0,81,0.00,,FEW,0.00,684.00,VWS V14.01,2013-12-01 16:44:00,
2013-12-01 11:45:00,75.5,69.3,30.05,North,5,4.0,6.0,81,0.00,,FEW,0.00,686.00,VWS V14.01,2013-12-01 16:45:00,
2013-12-01 11:47:00,75.7,69.1,30.05,NNW,331,7.0,8.0,80,0.00,,FEW,0.00,686.00,VWS V14.01,2013-12-01 16:47:00,
2013-12-01 11:49:00,75.8,69.2,30.05,North,11,5.0,8.0,80,0.00,,FEW,0.00,686.00,VWS V14.01,2013-12-01 16:49:00,
2013-12-01 11:50:00,75.7,69.1,30.05,NNW,335,7.0,8.0,80,0.00,,FEW,0.00,687.00,VWS V14.01,2013-12-01 16:50:00,
2013-12-01 11:52:00,75.6,69.0,30.05,NNW,340,4.0,8.0,80,0.00,,FEW,0.00,689.00,VWS V14.01,2013-12-01 16:52:00,
2013-12-01 11:53:00,75.6,69.0,30.05,NNW,344,3.0,8.0,80,0.00,,FEW,0.00,689.00,VWS V14.01,2013-12-01 16:53:00,
2013-12-01 11:54:00,75.6,69.0,30.05,NNW,332,5.0,8.0,80,0.00,,FEW,0.00,689.00,VWS V14.01,2013-12-01 16:54:00,
2013-12-01 11:55:00,75.6,69.0,30.05,North,355,8.0,8.0,80,0.00,,FEW,0.00,689.00,VWS V14.01,2013-12-01 16:55:00,
2013-12-01 11:57:00,75.6,69.0,30.05,NNW,346,7.0,8.0,80,0.00,,FEW,0.00,691.00,VWS V14.01,2013-12-01 16:57:00,
2013-12-01 11:58:00,75.5,68.9,30.05,NNE,19,4.0,8.0,80,0.00,,FEW,0.00,691.00,VWS V14.01,2013-12-01 16:58:00,
2013-12-01 11:59:00,75.4,68.8,30.05,North,355,8.0,8.0,80,0.00,,FEW,0.00,693.00,VWS V14.01,2013-12-01 16:59:00,
2013-12-01 12:00:00,75.4,68.8,30.05,North,355,3.0,8.0,80,0.00,,FEW,0.00,693.00,VWS V14.01,2013-12-01 17:00:00,
2013-12-01 12:03:00,75.5,68.9,30.05,NNE,17,6.0,8.0,80,0.00,,FEW,0.00,693.00,VWS V14.01,2013-12-01 17:03:00,
2013-12-01 12:04:00,75.5,69.3,30.05,NE,34,5.0,9.0,81,0.00,,FEW,0.00,693.00,VWS V14.01,2013-12-01 17:04:00,
2013-12-01 12:05:00,75.5,69.3,30.05,NNW,339,7.0,9.0,81,0.00,,FEW,0.00,693.00,VWS V14.01,2013-12-01 17:05:00,
2013-12-01 12:06:00,75.5,69.3,30.05,NNE,32,5.0,9.0,81,0.00,,FEW,0.00,693.00,VWS V14.01,2013-12-01 17:06:00,
2013-12-01 12:08:00,75.8,69.6,30.05,NNW,348,8.0,9.0,81,0.00,,FEW,0.00,694.00,VWS V14.01,2013-12-01 17:08:00,
2013-12-01 12:10:00,75.8,69.2,30.05,North,360,5.0,9.0,80,0.00,,FEW,0.00,693.00,VWS V14.01,2013-12-01 17:10:00,
2013-12-01 12:11:00,75.8,69.2,30.05,North,355,6.0,6.0,80,0.00,,FEW,0.00,693.00,VWS V14.01,2013-12-01 17:11:00,
2013-12-01 12:13:00,75.8,69.2,30.05,North,5,6.0,8.0,80,0.00,,FEW,0.00,693.00,VWS V14.01,2013-12-01 17:13:00,
2013-12-01 12:15:00,75.6,69.0,30.03,NNW,346,6.0,9.0,80,0.00,,FEW,0.00,693.00,VWS V14.01,2013-12-01 17:15:00,
2013-12-01 12:16:00,75.6,69.4,30.03,North,355,5.0,9.0,81,0.00,,FEW,0.00,693.00,VWS V14.01,2013-12-01 17:16:00,
2013-12-01 12:18:00,75.6,69.4,30.03,North,355,10.0,10.0,81,0.00,,FEW,0.00,691.00,VWS V14.01,2013-12-01 17:18:00,
2013-12-01 12:19:00,75.7,69.5,30.03,NE,35,4.0,10.0,81,0.00,,FEW,0.00,691.00,VWS V14.01,2013-12-01 17:19:00,
2013-12-01 12:20:00,75.8,69.6,30.03,NNW,336,6.0,10.0,81,0.00,,FEW,0.00,691.00,VWS V14.01,2013-12-01 17:20:00,
2013-12-01 12:21:00,75.8,69.6,30.03,North,5,5.0,10.0,81,0.00,,FEW,0.00,691.00,VWS V14.01,2013-12-01 17:21:00,
2013-12-01 12:23:00,76.2,69.6,30.03,NNE,15,4.0,7.0,80,0.00,,FEW,0.00,693.00,VWS V14.01,2013-12-01 17:23:00,
2013-12-01 12:24:00,76.3,69.7,30.03,North,355,4.0,7.0,80,0.00,,FEW,0.00,693.00,VWS V14.01,2013-12-01 17:24:00,
2013-12-01 12:25:00,76.4,69.8,30.03,NNE,32,4.0,7.0,80,0.00,,FEW,0.00,693.00,VWS V14.01,2013-12-01 17:25:00,
2013-12-01 12:26:00,76.4,69.8,30.03,NNE,19,2.0,7.0,80,0.00,,FEW,0.00,691.00,VWS V14.01,2013-12-01 17:26:00,
2013-12-01 12:27:00,76.5,69.9,30.03,NNE,30,1.0,7.0,80,0.00,,FEW,0.00,691.00,VWS V14.01,2013-12-01 17:27:00,
2013-12-01 12:28:00,76.9,70.3,30.03,North,355,3.0,7.0,80,0.00,,FEW,0.00,691.00,VWS V14.01,2013-12-01 17:28:00,
2013-12-01 12:30:00,76.9,69.9,30.03,NNE,22,3.0,7.0,79,0.00,,FEW,0.00,689.00,VWS V14.01,2013-12-01 17:30:00,
2013-12-01 12:31:00,77.0,70.0,30.03,North,355,5.0,7.0,79,0.00,,FEW,0.00,689.00,VWS V14.01,2013-12-01 17:31:00,
2013-12-01 12:32:00,76.9,69.9,30.03,North,351,6.0,7.0,79,0.00,,FEW,0.00,689.00,VWS V14.01,2013-12-01 17:32:00,
2013-12-01 12:34:00,77.1,70.1,30.03,NNW,336,4.0,7.0,79,0.00,,FEW,0.00,689.00,VWS V14.01,2013-12-01 17:34:00,
2013-12-01 12:35:00,77.2,69.8,30.03,NNW,333,8.0,8.0,78,0.00,,FEW,0.00,689.00,VWS V14.01,2013-12-01 17:35:00,
2013-12-01 12:36:00,77.1,69.7,30.03,North,355,4.0,10.0,78,0.00,,FEW,0.00,687.00,VWS V14.01,2013-12-01 17:36:00,
2013-12-01 12:37:00,77.0,69.6,30.03,NNW,336,6.0,10.0,78,0.00,,FEW,0.00,687.00,VWS V14.01,2013-12-01 17:37:00,
2013-12-01 12:39:00,76.8,69.4,30.03,NNW,338,7.0,10.0,78,0.00,,FEW,0.00,686.00,VWS V14.01,2013-12-01 17:39:00,
2013-12-01 12:40:00,76.7,69.3,30.03,NNW,342,10.0,11.0,78,0.00,,FEW,0.00,686.00,VWS V14.01,2013-12-01 17:40:00,
2013-12-01 12:41:00,76.7,69.3,30.03,North,355,9.0,9.0,78,0.00,,FEW,0.00,686.00,VWS V14.01,2013-12-01 17:41:00,
2013-12-01 12:42:00,76.7,69.3,30.03,NNW,346,8.0,11.0,78,0.00,,FEW,0.00,686.00,VWS V14.01,2013-12-01 17:42:00,
2013-12-01 12:44:00,76.6,69.2,30.03,NW,323,7.0,11.0,78,0.00,,FEW,0.00,682.00,VWS V14.01,2013-12-01 17:44:00,
2013-12-01 12:46:00,76.6,69.2,30.02,North,355,5.0,11.0,78,0.00,,FEW,0.00,682.00,VWS V14.01,2013-12-01 17:46:00,
2013-12-01 12:47:00,76.7,69.3,30.02,NNW,329,10.0,11.0,78,0.00,,FEW,0.00,682.00,VWS V14.01,2013-12-01 17:47:00,
2013-12-01 12:49:00,76.7,69.3,30.02,NNE,12,4.0,11.0,78,0.00,,FEW,0.00,680.00,VWS V14.01,2013-12-01 17:49:00,
2013-12-01 12:51:00,76.9,69.9,30.02,North,355,8.0,11.0,79,0.00,,FEW,0.00,680.00,VWS V14.01,2013-12-01 17:51:00,
2013-12-01 12:52:00,77.0,69.6,30.02,North,5,5.0,9.0,78,0.00,,FEW,0.00,679.00,VWS V14.01,2013-12-01 17:52:00,
2013-12-01 12:55:00,77.1,70.1,30.02,North,355,7.0,9.0,79,0.00,,FEW,0.00,677.00,VWS V14.01,2013-12-01 17:55:00,
2013-12-01 12:56:00,77.1,70.1,30.02,NNW,342,10.0,10.0,79,0.00,,FEW,0.00,677.00,VWS V14.01,2013-12-01 17:56:00,
2013-12-01 12:57:00,77.1,69.7,30.02,NNE,20,5.0,10.0,78,0.00,,FEW,0.00,677.00,VWS V14.01,2013-12-01 17:57:00,
2013-12-01 12:58:00,77.0,70.0,30.02,North,5,3.0,10.0,79,0.00,,FEW,0.00,675.00,VWS V14.01,2013-12-01 17:58:00,
2013-12-01 13:00:00,77.1,70.5,30.01,NW,311,4.0,10.0,80,0.00,,FEW,0.00,673.00,VWS V14.01,2013-12-01 18:00:00,
2013-12-01 13:01:00,77.1,70.5,30.01,NNW,346,3.0,5.0,80,0.00,,FEW,0.00,671.00,VWS V14.01,2013-12-01 18:01:00,
2013-12-01 13:02:00,77.2,70.6,30.01,NNW,339,7.0,8.0,80,0.00,,FEW,0.00,671.00,VWS V14.01,2013-12-01 18:02:00,
2013-12-01 13:03:00,77.1,70.5,30.01,NW,309,7.0,10.0,80,0.00,,FEW,0.00,670.00,VWS V14.01,2013-12-01 18:03:00,
2013-12-01 13:05:00,76.7,70.4,30.01,NNW,335,8.0,10.0,81,0.00,,FEW,0.00,668.00,VWS V14.01,2013-12-01 18:05:00,
2013-12-01 13:06:00,76.7,70.4,30.01,NNW,348,8.0,10.0,81,0.00,,FEW,0.00,670.00,VWS V14.01,2013-12-01 18:06:00,
2013-12-01 13:07:00,76.6,70.3,30.01,NNW,332,5.0,10.0,81,0.00,,FEW,0.00,670.00,VWS V14.01,2013-12-01 18:07:00,
2013-12-01 13:09:00,76.5,70.6,30.01,West,261,5.0,10.0,82,0.00,,FEW,0.00,666.00,VWS V14.01,2013-12-01 18:09:00,
2013-12-01 13:11:00,76.5,70.6,30.01,NNW,336,6.0,10.0,82,0.00,,FEW,0.00,661.00,VWS V14.01,2013-12-01 18:11:00,
2013-12-01 13:12:00,76.5,70.6,30.01,North,355,5.0,7.0,82,0.00,,FEW,0.00,663.00,VWS V14.01,2013-12-01 18:12:00,
2013-12-01 13:14:00,76.4,70.5,30.01,NNW,346,7.0,8.0,82,0.00,,FEW,0.00,659.00,VWS V14.01,2013-12-01 18:14:00,
2013-12-01 13:16:00,76.2,70.3,30.01,NNW,329,5.0,8.0,82,0.00,,FEW,0.00,657.00,VWS V14.01,2013-12-01 18:16:00,
2013-12-01 13:17:00,76.2,70.3,30.01,North,11,5.0,8.0,82,0.00,,FEW,0.00,657.00,VWS V14.01,2013-12-01 18:17:00,
2013-12-01 13:19:00,76.2,70.3,30.01,NNW,328,8.0,8.0,82,0.00,,FEW,0.00,654.00,VWS V14.01,2013-12-01 18:19:00,
2013-12-01 13:21:00,76.2,70.3,30.01,North,5,7.0,7.0,82,0.00,,FEW,0.00,652.00,VWS V14.01,2013-12-01 18:21:00,
2013-12-01 13:22:00,76.2,70.3,30.01,NNW,338,5.0,10.0,82,0.00,,FEW,0.00,652.00,VWS V14.01,2013-12-01 18:22:00,
2013-12-01 13:24:00,76.4,70.5,30.01,North,355,8.0,11.0,82,0.00,,FEW,0.00,649.00,VWS V14.01,2013-12-01 18:24:00,
2013-12-01 13:26:00,76.4,70.5,30.01,NNW,331,7.0,11.0,82,0.00,,FEW,0.00,645.00,VWS V14.01,2013-12-01 18:26:00,
2013-12-01 13:27:00,76.4,70.1,30.01,North,355,5.0,11.0,81,0.00,,FEW,0.00,645.00,VWS V14.01,2013-12-01 18:27:00,
2013-12-01 13:28:00,76.3,70.1,30.01,NNE,25,5.0,11.0,81,0.00,,FEW,0.00,645.00,VWS V14.01,2013-12-01 18:28:00,
2013-12-01 13:30:00,76.2,69.9,30.01,North,11,3.0,11.0,81,0.00,,FEW,0.00,640.00,VWS V14.01,2013-12-01 18:30:00,
2013-12-01 13:31:00,76.2,70.3,30.01,WNW,298,8.0,10.0,82,0.00,,FEW,0.00,638.00,VWS V14.01,2013-12-01 18:31:00,
2013-12-01 13:32:00,76.2,70.3,30.01,NW,319,10.0,10.0,82,0.00,,FEW,0.00,636.00,VWS V14.01,2013-12-01 18:32:00,
2013-12-01 13:33:00,76.2,70.3,30.01,NNE,15,5.0,10.0,82,0.00,,FEW,0.00,635.00,VWS V14.01,2013-12-01 18:33:00,
2013-12-01 13:35:00,76.2,70.3,30.01,NNW,331,8.0,10.0,82,0.00,,FEW,0.00,633.00,VWS V14.01,2013-12-01 18:35:00,
2013-12-01 13:37:00,76.2,70.3,30.01,North,355,12.0,12.0,82,0.00,,FEW,0.00,631.00,VWS V14.01,2013-12-01 18:37:00,
2013-12-01 13:38:00,76.1,70.2,30.01,NNE,26,9.0,12.0,82,0.00,,FEW,0.00,629.00,VWS V14.01,2013-12-01 18:38:00,
2013-12-01 13:40:00,75.9,70.0,30.01,North,351,3.0,12.0,82,0.00,,FEW,0.00,626.00,VWS V14.01,2013-12-01 18:40:00,
2013-12-01 13:42:00,75.9,70.0,30.01,NW,325,7.0,10.0,82,0.00,,FEW,0.00,624.00,VWS V14.01,2013-12-01 18:42:00,
2013-12-01 13:43:00,75.9,70.0,30.01,NNW,344,7.0,10.0,82,0.00,,FEW,0.00,621.00,VWS V14.01,2013-12-01 18:43:00,
2013-12-01 13:45:00,75.8,69.9,30.00,NW,309,6.0,11.0,82,0.00,,FEW,0.00,617.00,VWS V14.01,2013-12-01 18:45:00,
2013-12-01 13:47:00,75.8,70.3,30.00,NNW,345,7.0,11.0,83,0.00,,FEW,0.00,613.00,VWS V14.01,2013-12-01 18:47:00,
2013-12-01 13:48:00,75.8,69.9,30.00,NNW,343,6.0,11.0,82,0.00,,FEW,0.00,612.00,VWS V14.01,2013-12-01 18:48:00,
2013-12-01 13:51:00,75.8,70.3,30.00,NW,319,8.0,11.0,83,0.00,,FEW,0.00,610.00,VWS V14.01,2013-12-01 18:51:00,
2013-12-01 13:52:00,75.8,70.3,30.00,NNW,339,11.0,11.0,83,0.00,,FEW,0.00,606.00,VWS V14.01,2013-12-01 18:52:00,
2013-12-01 13:53:00,75.7,70.2,30.00,NW,312,9.0,11.0,83,0.00,,FEW,0.00,605.00,VWS V14.01,2013-12-01 18:53:00,
2013-12-01 13:56:00,75.6,70.1,30.00,North,355,10.0,12.0,83,0.00,,FEW,0.00,599.00,VWS V14.01,2013-12-01 18:56:00,
2013-12-01 13:57:00,75.5,70.0,30.00,NNW,333,10.0,12.0,83,0.00,,FEW,0.00,599.00,VWS V14.01,2013-12-01 18:57:00,
2013-12-01 13:58:00,75.5,70.0,30.00,NNW,346,7.0,12.0,83,0.00,,FEW,0.00,596.00,VWS V14.01,2013-12-01 18:58:00,
2013-12-01 14:01:00,75.5,70.0,29.99,NNW,337,7.0,7.0,83,0.00,,FEW,0.00,591.00,VWS V14.01,2013-12-01 19:01:00,
2013-12-01 14:02:00,75.5,70.0,29.99,NNW,343,6.0,8.0,83,0.00,,FEW,0.00,589.00,VWS V14.01,2013-12-01 19:02:00,
2013-12-01 14:03:00,75.5,70.0,29.99,NNW,348,3.0,8.0,83,0.00,,FEW,0.00,587.00,VWS V14.01,2013-12-01 19:03:00,
2013-12-01 14:04:00,75.6,70.1,29.99,NNW,339,5.0,8.0,83,0.00,,FEW,0.00,585.00,VWS V14.01,2013-12-01 19:04:00,
2013-12-01 14:06:00,75.7,70.2,29.99,NW,326,5.0,10.0,83,0.00,,FEW,0.00,580.00,VWS V14.01,2013-12-01 19:06:00,
2013-12-01 14:07:00,75.6,70.1,29.99,NNW,336,9.0,10.0,83,0.00,,FEW,0.00,578.00,VWS V14.01,2013-12-01 19:07:00,
2013-12-01 14:08:00,75.6,70.1,29.99,North,351,8.0,10.0,83,0.00,,FEW,0.00,578.00,VWS V14.01,2013-12-01 19:08:00,
2013-12-01 14:09:00,75.5,70.0,29.99,NNW,335,8.0,10.0,83,0.00,,FEW,0.00,577.00,VWS V14.01,2013-12-01 19:09:00,
2013-12-01 14:11:00,75.4,69.9,29.99,NNE,14,6.0,10.0,83,0.00,,FEW,0.00,571.00,VWS V14.01,2013-12-01 19:11:00,
2013-12-01 14:12:00,75.4,69.9,29.99,NNW,335,11.0,11.0,83,0.00,,FEW,0.00,568.00,VWS V14.01,2013-12-01 19:12:00,
2013-12-01 14:13:00,75.4,69.9,29.99,NNE,14,5.0,11.0,83,0.00,,FEW,0.00,566.00,VWS V14.01,2013-12-01 19:13:00,
2013-12-01 14:14:00,75.4,69.9,29.99,North,5,7.0,11.0,83,0.00,,FEW,0.00,566.00,VWS V14.01,2013-12-01 19:14:00,
2013-12-01 14:17:00,75.6,70.4,29.99,North,355,7.0,11.0,84,0.00,,FEW,0.00,559.00,VWS V14.01,2013-12-01 19:17:00,
2013-12-01 14:18:00,75.6,70.4,29.99,North,5,5.0,11.0,84,0.00,,FEW,0.00,557.00,VWS V14.01,2013-12-01 19:18:00,
2013-12-01 14:19:00,75.6,70.4,29.99,NNW,342,5.0,11.0,84,0.00,,FEW,0.00,552.00,VWS V14.01,2013-12-01 19:19:00,
2013-12-01 14:20:00,75.5,70.0,29.99,North,350,4.0,11.0,83,0.00,,FEW,0.00,552.00,VWS V14.01,2013-12-01 19:20:00,
2013-12-01 14:22:00,75.5,70.3,29.99,NNE,22,8.0,8.0,84,0.00,,FEW,0.00,548.00,VWS V14.01,2013-12-01 19:22:00,
2013-12-01 14:23:00,75.6,70.4,29.99,NNE,14,8.0,9.0,84,0.00,,FEW,0.00,545.00,VWS V14.01,2013-12-01 19:23:00,
2013-12-01 14:24:00,75.5,70.0,29.99,North,355,8.0,9.0,83,0.00,,FEW,0.00,541.00,VWS V14.01,2013-12-01 19:24:00,
2013-12-01 14:25:00,75.5,70.0,29.99,NNW,329,10.0,10.0,83,0.00,,FEW,0.00,541.00,VWS V14.01,2013-12-01 19:25:00,
2013-12-01 14:27:00,75.5,70.3,29.99,NNW,333,8.0,10.0,84,0.00,,FEW,0.00,536.00,VWS V14.01,2013-12-01 19:27:00,
2013-12-01 14:28:00,75.5,70.3,29.99,North,360,6.0,10.0,84,0.00,,FEW,0.00,534.00,VWS V14.01,2013-12-01 19:28:00,
2013-12-01 14:29:00,75.4,69.9,29.99,North,355,9.0,11.0,83,0.00,,FEW,0.00,533.00,VWS V14.01,2013-12-01 19:29:00,
2013-12-01 14:30:00,75.4,69.9,29.99,NNW,344,9.0,11.0,83,0.00,,FEW,0.00,531.00,VWS V14.01,2013-12-01 19:30:00,
2013-12-01 14:32:00,75.3,69.8,29.99,NW,323,7.0,10.0,83,0.00,,FEW,0.00,526.00,VWS V14.01,2013-12-01 19:32:00,
2013-12-01 14:33:00,75.2,69.7,29.99,NW,311,7.0,11.0,83,0.00,,FEW,0.00,524.00,VWS V14.01,2013-12-01 19:33:00,
2013-12-01 14:34:00,75.1,69.6,29.99,North,5,4.0,11.0,83,0.00,,FEW,0.00,520.00,VWS V14.01,2013-12-01 19:34:00,
2013-12-01 14:35:00,75.1,69.9,29.99,NNW,339,8.0,11.0,84,0.00,,FEW,0.00,519.00,VWS V14.01,2013-12-01 19:35:00,
2013-12-01 14:37:00,75.2,70.0,29.99,WNW,300,5.0,11.0,84,0.00,,FEW,0.00,515.00,VWS V14.01,2013-12-01 19:37:00,
2013-12-01 14:38:00,75.2,70.0,29.99,North,351,8.0,11.0,84,0.00,,FEW,0.00,512.00,VWS V14.01,2013-12-01 19:38:00,
2013-12-01 14:40:00,75.1,69.9,29.99,North,9,5.0,11.0,84,0.00,,FEW,0.00,506.00,VWS V14.01,2013-12-01 19:40:00,
2013-12-01 14:43:00,75.1,69.9,29.99,NW,323,6.0,7.0,84,0.00,,FEW,0.00,499.00,VWS V14.01,2013-12-01 19:43:00,
2013-12-01 14:44:00,75.2,70.0,29.99,NNW,332,5.0,7.0,84,0.00,,FEW,0.00,497.00,VWS V14.01,2013-12-01 19:44:00,
2013-12-01 14:45:00,75.3,70.1,29.97,NNW,344,8.0,10.0,84,0.00,,FEW,0.00,492.00,VWS V14.01,2013-12-01 19:45:00,
2013-12-01 14:48:00,75.2,70.0,29.97,NNE,33,5.0,10.0,84,0.00,,FEW,0.00,489.00,VWS V14.01,2013-12-01 19:48:00,
2013-12-01 14:49:00,75.1,69.9,29.97,North,9,5.0,10.0,84,0.00,,FEW,0.00,485.00,VWS V14.01,2013-12-01 19:49:00,
2013-12-01 14:50:00,75.1,69.9,29.97,NNW,345,6.0,10.0,84,0.00,,FEW,0.00,482.00,VWS V14.01,2013-12-01 19:50:00,
2013-12-01 14:51:00,75.1,69.9,29.97,NNW,345,6.0,10.0,84,0.00,,FEW,0.00,482.00,VWS V14.01,2013-12-01 19:51:00,
2013-12-01 14:53:00,75.0,69.8,29.97,NNW,343,8.0,8.0,84,0.00,,FEW,0.00,476.00,VWS V14.01,2013-12-01 19:53:00,
2013-12-01 14:54:00,75.0,69.8,29.97,NNW,346,4.0,8.0,84,0.00,,FEW,0.00,475.00,VWS V14.01,2013-12-01 19:54:00,
2013-12-01 14:55:00,75.0,69.8,29.97,NNW,340,7.0,8.0,84,0.00,,FEW,0.00,469.00,VWS V14.01,2013-12-01 19:55:00,
2013-12-01 14:56:00,75.0,69.8,29.97,North,355,7.0,8.0,84,0.00,,FEW,0.00,466.00,VWS V14.01,2013-12-01 19:56:00,
2013-12-01 14:58:00,74.9,69.7,29.97,North,355,4.0,8.0,84,0.00,,FEW,0.00,462.00,VWS V14.01,2013-12-01 19:58:00,
2013-12-01 14:59:00,74.9,69.7,29.97,North,355,4.0,8.0,84,0.00,,FEW,0.00,459.00,VWS V14.01,2013-12-01 19:59:00,
2013-12-01 15:01:00,75.0,69.8,29.96,NNW,348,7.0,8.0,84,0.00,,FEW,0.00,454.00,VWS V14.01,2013-12-01 20:01:00,
2013-12-01 15:03:00,75.0,69.8,29.96,North,355,4.0,8.0,84,0.00,,FEW,0.00,446.00,VWS V14.01,2013-12-01 20:03:00,
2013-12-01 15:04:00,75.0,69.8,29.96,NNE,31,6.0,8.0,84,0.00,,FEW,0.00,445.00,VWS V14.01,2013-12-01 20:04:00,
2013-12-01 15:06:00,75.1,69.9,29.96,NNW,348,4.0,8.0,84,0.00,,FEW,0.00,439.00,VWS V14.01,2013-12-01 20:06:00,
2013-12-01 15:08:00,75.0,69.8,29.96,North,355,8.0,8.0,84,0.00,,FEW,0.00,434.00,VWS V14.01,2013-12-01 20:08:00,
2013-12-01 15:09:00,75.1,70.3,29.96,NW,326,4.0,8.0,85,0.00,,FEW,0.00,432.00,VWS V14.01,2013-12-01 20:09:00,
2013-12-01 15:11:00,75.0,69.8,29.96,North,351,4.0,8.0,84,0.00,,FEW,0.00,427.00,VWS V14.01,2013-12-01 20:11:00,
2013-12-01 15:12:00,75.0,69.8,29.96,NW,313,9.0,9.0,84,0.00,,FEW,0.00,424.00,VWS V14.01,2013-12-01 20:12:00,
2013-12-01 15:13:00,75.0,69.8,29.96,North,349,6.0,9.0,84,0.00,,FEW,0.00,418.00,VWS V14.01,2013-12-01 20:13:00,
2013-12-01 15:14:00,75.0,69.8,29.96,NW,317,7.0,9.0,84,0.00,,FEW,0.00,418.00,VWS V14.01,2013-12-01 20:14:00,
2013-12-01 15:17:00,74.9,69.7,29.96,NNW,327,8.0,9.0,84,0.00,,FEW,0.00,410.00,VWS V14.01,2013-12-01 20:17:00,
2013-12-01 15:18:00,74.9,69.7,29.96,North,355,6.0,9.0,84,0.00,,FEW,0.00,404.00,VWS V14.01,2013-12-01 20:18:00,
2013-12-01 15:19:00,74.9,69.7,29.96,North,11,4.0,9.0,84,0.00,,FEW,0.00,404.00,VWS V14.01,2013-12-01 20:19:00,
2013-12-01 15:22:00,75.0,70.2,29.96,NNW,340,4.0,7.0,85,0.00,,FEW,0.00,392.00,VWS V14.01,2013-12-01 20:22:00,
2013-12-01 15:23:00,75.0,69.8,29.96,North,360,5.0,7.0,84,0.00,,FEW,0.00,390.00,VWS V14.01,2013-12-01 20:23:00,
2013-12-01 15:24:00,75.0,69.8,29.96,North,355,5.0,8.0,84,0.00,,FEW,0.00,390.00,VWS V14.01,2013-12-01 20:24:00,
2013-12-01 15:27:00,75.1,69.9,29.96,NNW,331,4.0,8.0,84,0.00,,FEW,0.00,378.00,VWS V14.01,2013-12-01 20:27:00,
2013-12-01 15:28:00,75.1,69.9,29.96,NNW,331,5.0,8.0,84,0.00,,FEW,0.00,374.00,VWS V14.01,2013-12-01 20:28:00,
2013-12-01 15:29:00,75.1,69.9,29.96,WNW,292,4.0,8.0,84,0.00,,FEW,0.00,373.00,VWS V14.01,2013-12-01 20:29:00,
2013-12-01 15:30:00,75.0,69.8,29.96,North,355,5.0,8.0,84,0.00,,FEW,0.00,369.00,VWS V14.01,2013-12-01 20:30:00,
2013-12-01 15:32:00,75.0,69.8,29.96,North,349,4.0,8.0,84,0.00,,FEW,0.00,360.00,VWS V14.01,2013-12-01 20:32:00,
2013-12-01 15:33:00,75.0,69.8,29.96,NW,315,9.0,9.0,84,0.00,,FEW,0.00,359.00,VWS V14.01,2013-12-01 20:33:00,
2013-12-01 15:34:00,74.9,69.7,29.96,NW,326,7.0,9.0,84,0.00,,FEW,0.00,359.00,VWS V14.01,2013-12-01 20:34:00,
2013-12-01 15:35:00,74.9,70.1,29.96,NNW,342,5.0,9.0,85,0.00,,FEW,0.00,353.00,VWS V14.01,2013-12-01 20:35:00,
2013-12-01 15:37:00,75.0,70.2,29.96,WNW,292,8.0,9.0,85,0.00,,FEW,0.00,345.00,VWS V14.01,2013-12-01 20:37:00,
2013-12-01 15:38:00,75.0,70.2,29.96,WNW,292,8.0,9.0,85,0.00,,FEW,0.00,345.00,VWS V14.01,2013-12-01 20:38:00,
2013-12-01 15:39:00,74.9,70.1,29.96,NNW,344,2.0,9.0,85,0.00,,FEW,0.00,339.00,VWS V14.01,2013-12-01 20:39:00,
2013-12-01 15:40:00,74.9,70.1,29.96,WNW,293,6.0,9.0,85,0.00,,FEW,0.00,339.00,VWS V14.01,2013-12-01 20:40:00,
2013-12-01 15:43:00,74.7,69.9,29.96,NW,311,3.0,7.0,85,0.00,,FEW,0.00,330.00,VWS V14.01,2013-12-01 20:43:00,
2013-12-01 15:44:00,74.7,69.9,29.96,NW,309,6.0,7.0,85,0.00,,FEW,0.00,327.00,VWS V14.01,2013-12-01 20:44:00,
2013-12-01 15:45:00,74.7,69.9,29.96,NW,315,4.0,8.0,85,0.00,,FEW,0.00,320.00,VWS V14.01,2013-12-01 20:45:00,
2013-12-01 15:48:00,74.6,69.8,29.96,NW,319,6.0,8.0,85,0.00,,FEW,0.00,311.00,VWS V14.01,2013-12-01 20:48:00,
2013-12-01 15:49:00,74.5,69.7,29.96,NNW,341,6.0,8.0,85,0.00,,FEW,0.00,308.00,VWS V14.01,2013-12-01 20:49:00,
2013-12-01 15:50:00,74.4,69.6,29.96,NW,305,4.0,8.0,85,0.00,,FEW,0.00,306.00,VWS V14.01,2013-12-01 20:50:00,
2013-12-01 15:53:00,74.4,69.9,29.96,NNW,343,4.0,7.0,86,0.00,,FEW,0.00,295.00,VWS V14.01,2013-12-01 20:53:00,
2013-12-01 15:54:00,74.4,69.9,29.96,NW,318,3.0,7.0,86,0.00,,FEW,0.00,294.00,VWS V14.01,2013-12-01 20:54:00,
2013-12-01 15:55:00,74.4,69.9,29.96,NW,315,5.0,7.0,86,0.00,,FEW,0.00,290.00,VWS V14.01,2013-12-01 20:55:00,
2013-12-01 15:58:00,74.3,69.8,29.96,NNW,341,7.0,8.0,86,0.00,,FEW,0.00,279.00,VWS V14.01,2013-12-01 20:58:00,
2013-12-01 15:59:00,74.3,69.8,29.96,NW,315,5.0,8.0,86,0.00,,FEW,0.00,278.00,VWS V14.01,2013-12-01 20:59:00,
2013-12-01 16:00:00,74.3,69.8,29.96,NW,321,3.0,8.0,86,0.00,,FEW,0.00,274.00,VWS V14.01,2013-12-01 21:00:00,
2013-12-01 16:03:00,74.1,69.7,29.96,NW,319,1.0,5.0,86,0.00,,FEW,0.00,264.00,VWS V14.01,2013-12-01 21:03:00,
2013-12-01 16:04:00,74.2,69.8,29.96,NNW,345,6.0,6.0,86,0.00,,FEW,0.00,264.00,VWS V14.01,2013-12-01 21:04:00,
2013-12-01 16:05:00,74.2,69.8,29.96,NNW,329,4.0,6.0,86,0.00,,FEW,0.00,257.00,VWS V14.01,2013-12-01 21:05:00,
2013-12-01 16:06:00,74.2,69.8,29.96,NW,319,3.0,6.0,86,0.00,,FEW,0.00,253.00,VWS V14.01,2013-12-01 21:06:00,
2013-12-01 16:08:00,74.1,69.7,29.96,NNW,335,7.0,7.0,86,0.00,,FEW,0.00,246.00,VWS V14.01,2013-12-01 21:08:00,
2013-12-01 16:09:00,74.0,69.6,29.96,NW,311,4.0,7.0,86,0.00,,FEW,0.00,244.00,VWS V14.01,2013-12-01 21:09:00,
2013-12-01 16:10:00,74.0,69.6,29.96,NNW,342,4.0,7.0,86,0.00,,FEW,0.00,241.00,VWS V14.01,2013-12-01 21:10:00,
2013-12-01 16:11:00,74.0,69.6,29.96,North,355,5.0,5.0,86,0.00,,FEW,0.00,237.00,VWS V14.01,2013-12-01 21:11:00,
2013-12-01 16:13:00,74.0,69.6,29.96,NNW,344,6.0,8.0,86,0.00,,FEW,0.00,232.00,VWS V14.01,2013-12-01 21:13:00,
2013-12-01 16:14:00,74.0,69.6,29.96,NNW,341,2.0,8.0,86,0.00,,FEW,0.00,229.00,VWS V14.01,2013-12-01 21:14:00,
2013-12-01 16:15:00,74.0,69.6,29.95,NNW,336,2.0,8.0,86,0.00,,FEW,0.00,221.00,VWS V14.01,2013-12-01 21:15:00,
2013-12-01 16:16:00,74.0,69.6,29.95,North,355,6.0,8.0,86,0.00,,FEW,0.00,221.00,VWS V14.01,2013-12-01 21:16:00,
2013-12-01 16:18:00,74.0,69.6,29.95,NNW,347,4.0,8.0,86,0.00,,FEW,0.00,213.00,VWS V14.01,2013-12-01 21:18:00,
2013-12-01 16:19:00,74.0,69.6,29.95,North,355,5.0,8.0,86,0.00,,FEW,0.00,213.00,VWS V14.01,2013-12-01 21:19:00,
2013-12-01 16:20:00,74.0,69.6,29.95,North,360,4.0,8.0,86,0.00,,FEW,0.00,209.00,VWS V14.01,2013-12-01 21:20:00,
2013-12-01 16:21:00,74.0,69.6,29.95,NNW,331,3.0,8.0,86,0.00,,FEW,0.00,206.00,VWS V14.01,2013-12-01 21:21:00,
2013-12-01 16:22:00,74.0,69.6,29.95,NNW,344,4.0,6.0,86,0.00,,FEW,0.00,204.00,VWS V14.01,2013-12-01 21:22:00,
2013-12-01 16:23:00,73.9,69.4,29.95,North,355,4.0,6.0,86,0.00,,FEW,0.00,197.00,VWS V14.01,2013-12-01 21:23:00,
2013-12-01 16:24:00,73.9,69.4,29.95,NW,323,6.0,6.0,86,0.00,,FEW,0.00,193.00,VWS V14.01,2013-12-01 21:24:00,
2013-12-01 16:25:00,73.9,69.4,29.95,WNW,296,1.0,6.0,86,0.00,,FEW,0.00,190.00,VWS V14.01,2013-12-01 21:25:00,
2013-12-01 16:26:00,73.9,69.4,29.95,NW,306,3.0,6.0,86,0.00,,FEW,0.00,190.00,VWS V14.01,2013-12-01 21:26:00,
2013-12-01 16:27:00,73.9,69.4,29.95,NW,325,3.0,6.0,86,0.00,,FEW,0.00,185.00,VWS V14.01,2013-12-01 21:27:00,
2013-12-01 16:28:00,73.9,69.4,29.95,NW,326,4.0,8.0,86,0.00,,FEW,0.00,181.00,VWS V14.01,2013-12-01 21:28:00,
2013-12-01 16:29:00,73.9,69.4,29.95,NNW,329,6.0,8.0,86,0.00,,FEW,0.00,178.00,VWS V14.01,2013-12-01 21:29:00,
2013-12-01 16:30:00,73.9,69.4,29.95,NW,325,3.0,8.0,86,0.00,,FEW,0.00,174.00,VWS V14.01,2013-12-01 21:30:00,
2013-12-01 16:31:00,73.9,69.4,29.95,NNW,342,2.0,8.0,86,0.00,,FEW,0.00,171.00,VWS V14.01,2013-12-01 21:31:00,
2013-12-01 16:32:00,74.0,69.9,29.95,WNW,299,5.0,6.0,87,0.00,,FEW,0.00,169.00,VWS V14.01,2013-12-01 21:32:00,
2013-12-01 16:33:00,74.0,69.9,29.95,NNW,348,6.0,8.0,87,0.00,,FEW,0.00,165.00,VWS V14.01,2013-12-01 21:33:00,
2013-12-01 16:34:00,74.0,69.6,29.95,North,5,6.0,8.0,86,0.00,,FEW,0.00,162.00,VWS V14.01,2013-12-01 21:34:00,
2013-12-01 16:35:00,74.0,69.6,29.95,North,350,2.0,8.0,86,0.00,,FEW,0.00,158.00,VWS V14.01,2013-12-01 21:35:00,
2013-12-01 16:36:00,74.0,69.6,29.95,NNW,340,3.0,8.0,86,0.00,,FEW,0.00,155.00,VWS V14.01,2013-12-01 21:36:00,
2013-12-01 16:38:00,73.9,69.4,29.95,NW,306,4.0,8.0,86,0.00,,FEW,0.00,148.00,VWS V14.01,2013-12-01 21:38:00,
2013-12-01 16:40:00,73.9,69.4,29.95,NW,320,3.0,8.0,86,0.00,,FEW,0.00,142.00,VWS V14.01,2013-12-01 21:40:00,
2013-12-01 16:41:00,73.9,69.4,29.95,NNW,342,3.0,4.0,86,0.00,,FEW,0.00,139.00,VWS V14.01,2013-12-01 21:41:00,
2013-12-01 16:43:00,73.9,69.4,29.95,NNW,327,2.0,6.0,86,0.00,,FEW,0.00,134.00,VWS V14.01,2013-12-01 21:43:00,
2013-12-01 16:44:00,73.9,69.4,29.95,North,355,4.0,6.0,86,0.00,,FEW,0.00,127.00,VWS V14.01,2013-12-01 21:44:00,
2013-12-01 16:45:00,73.9,69.4,29.95,NNW,331,4.0,7.0,86,0.00,,FEW,0.00,127.00,VWS V14.01,2013-12-01 21:45:00,
2013-12-01 16:46:00,73.9,69.4,29.95,NNW,342,4.0,7.0,86,0.00,,FEW,0.00,123.00,VWS V14.01,2013-12-01 21:46:00,
2013-12-01 16:48:00,73.9,69.4,29.95,North,351,4.0,7.0,86,0.00,,FEW,0.00,113.00,VWS V14.01,2013-12-01 21:48:00,
2013-12-01 16:49:00,73.9,69.4,29.95,NNW,334,5.0,7.0,86,0.00,,FEW,0.00,113.00,VWS V14.01,2013-12-01 21:49:00,
2013-12-01 16:50:00,73.9,69.4,29.95,North,355,3.0,7.0,86,0.00,,FEW,0.00,109.00,VWS V14.01,2013-12-01 21:50:00,
2013-12-01 16:51:00,73.9,69.4,29.95,North,355,2.0,3.0,86,0.00,,FEW,0.00,102.00,VWS V14.01,2013-12-01 21:51:00,
2013-12-01 16:52:00,73.9,69.4,29.95,NNW,336,2.0,3.0,86,0.00,,FEW,0.00,102.00,VWS V14.01,2013-12-01 21:52:00,
2013-12-01 16:53:00,73.9,69.4,29.95,WNW,303,0.0,5.0,86,0.00,,FEW,0.00,95.00,VWS V14.01,2013-12-01 21:53:00,
2013-12-01 16:54:00,73.9,69.4,29.95,NW,317,3.0,5.0,86,0.00,,FEW,0.00,91.00,VWS V14.01,2013-12-01 21:54:00,
2013-12-01 16:55:00,73.9,69.4,29.95,North,355,4.0,5.0,86,0.00,,FEW,0.00,90.00,VWS V14.01,2013-12-01 21:55:00,
2013-12-01 16:56:00,73.8,69.3,29.95,NNW,328,3.0,5.0,86,0.00,,FEW,0.00,86.00,VWS V14.01,2013-12-01 21:56:00,
2013-12-01 16:57:00,73.8,69.3,29.95,NNW,333,3.0,5.0,86,0.00,,FEW,0.00,83.00,VWS V14.01,2013-12-01 21:57:00,
2013-12-01 16:58:00,73.8,69.3,29.95,NNW,328,1.0,6.0,86,0.00,,FEW,0.00,79.00,VWS V14.01,2013-12-01 21:58:00,
2013-12-01 16:59:00,73.8,69.3,29.95,North,355,1.0,6.0,86,0.00,,FEW,0.00,76.00,VWS V14.01,2013-12-01 21:59:00,
2013-12-01 17:00:00,73.8,69.3,29.96,NNW,333,4.0,6.0,86,0.00,,FEW,0.00,72.00,VWS V14.01,2013-12-01 22:00:00,
2013-12-01 17:01:00,73.8,69.3,29.96,NNW,329,5.0,6.0,86,0.00,,FEW,0.00,70.00,VWS V14.01,2013-12-01 22:01:00,
2013-12-01 17:02:00,73.8,69.3,29.96,NNW,339,2.0,6.0,86,0.00,,FEW,0.00,67.00,VWS V14.01,2013-12-01 22:02:00,
2013-12-01 17:03:00,73.8,69.3,29.96,NW,313,5.0,6.0,86,0.00,,FEW,0.00,62.00,VWS V14.01,2013-12-01 22:03:00,
2013-12-01 17:04:00,73.8,69.3,29.96,NW,316,2.0,6.0,86,0.00,,FEW,0.00,62.00,VWS V14.01,2013-12-01 22:04:00,
2013-12-01 17:05:00,73.8,69.3,29.96,North,5,6.0,6.0,86,0.00,,FEW,0.00,58.00,VWS V14.01,2013-12-01 22:05:00,
2013-12-01 17:06:00,73.8,69.7,29.96,WNW,302,6.0,6.0,87,0.00,,FEW,0.00,53.00,VWS V14.01,2013-12-01 22:06:00,
2013-12-01 17:07:00,73.8,69.7,29.96,WNW,291,4.0,6.0,87,0.00,,FEW,0.00,51.00,VWS V14.01,2013-12-01 22:07:00,
2013-12-01 17:09:00,73.8,69.7,29.96,WNW,298,3.0,6.0,87,0.00,,FEW,0.00,47.00,VWS V14.01,2013-12-01 22:09:00,
2013-12-01 17:10:00,73.8,69.7,29.96,NNW,338,3.0,6.0,87,0.00,,FEW,0.00,46.00,VWS V14.01,2013-12-01 22:10:00,
2013-12-01 17:12:00,73.8,69.7,29.96,NNW,328,4.0,5.0,87,0.00,,FEW,0.00,40.00,VWS V14.01,2013-12-01 22:12:00,
2013-12-01 17:14:00,73.7,69.6,29.96,NNW,327,4.0,7.0,87,0.00,,FEW,0.00,33.00,VWS V14.01,2013-12-01 22:14:00,
2013-12-01 17:15:00,73.7,69.6,29.97,NW,307,2.0,7.0,87,0.00,,FEW,0.00,32.00,VWS V14.01,2013-12-01 22:15:00,
2013-12-01 17:17:00,73.6,69.5,29.97,NW,309,3.0,7.0,87,0.00,,FEW,0.00,21.00,VWS V14.01,2013-12-01 22:17:00,
2013-12-01 17:19:00,73.5,69.4,29.97,NW,323,6.0,8.0,87,0.00,,FEW,0.00,18.00,VWS V14.01,2013-12-01 22:19:00,
2013-12-01 17:20:00,73.5,69.4,29.97,NNW,331,5.0,8.0,87,0.00,,FEW,0.00,16.00,VWS V14.01,2013-12-01 22:20:00,
2013-12-01 17:22:00,73.4,69.3,29.97,NNW,327,7.0,9.0,87,0.00,,FEW,0.00,14.00,VWS V14.01,2013-12-01 22:22:00,
2013-12-01 17:25:00,73.2,69.1,29.97,NNW,335,5.0,9.0,87,0.00,,FEW,0.00,11.00,VWS V14.01,2013-12-01 22:25:00,
2013-12-01 17:26:00,73.2,69.1,29.97,NW,320,3.0,9.0,87,0.00,,FEW,0.00,11.00,VWS V14.01,2013-12-01 22:26:00,
2013-12-01 17:27:00,73.1,69.0,29.97,NNE,12,5.0,9.0,87,0.00,,FEW,0.00,9.00,VWS V14.01,2013-12-01 22:27:00,
2013-12-01 17:28:00,73.1,69.0,29.97,NNW,332,5.0,9.0,87,0.00,,FEW,0.00,9.00,VWS V14.01,2013-12-01 22:28:00,
2013-12-01 17:30:00,73.0,68.9,29.97,NNE,12,8.0,9.0,87,0.00,,FEW,0.00,9.00,VWS V14.01,2013-12-01 22:30:00,
2013-12-01 17:31:00,72.9,68.8,29.97,NNW,338,3.0,9.0,87,0.00,,FEW,0.00,7.00,VWS V14.01,2013-12-01 22:31:00,
2013-12-01 17:33:00,72.9,69.1,29.97,NNW,333,2.0,7.0,88,0.00,,FEW,0.00,5.00,VWS V14.01,2013-12-01 22:33:00,
2013-12-01 17:35:00,72.8,69.0,29.97,NW,305,4.0,8.0,88,0.00,,FEW,0.00,5.00,VWS V14.01,2013-12-01 22:35:00,
2013-12-01 17:36:00,72.8,69.0,29.97,NW,323,5.0,8.0,88,0.00,,FEW,0.00,5.00,VWS V14.01,2013-12-01 22:36:00,
2013-12-01 17:38:00,72.7,68.9,29.97,NW,316,3.0,8.0,88,0.00,,FEW,0.00,0.00,VWS V14.01,2013-12-01 22:38:00,
2013-12-01 17:40:00,72.7,68.9,29.97,NNW,330,8.0,8.0,88,0.00,,FEW,0.00,0.00,VWS V14.01,2013-12-01 22:40:00,
2013-12-01 17:41:00,72.7,68.9,29.97,NW,313,8.0,8.0,88,0.00,,FEW,0.00,0.00,VWS V14.01,2013-12-01 22:41:00,
2013-12-01 17:43:00,72.6,68.8,29.97,NNW,340,4.0,8.0,88,0.00,,FEW,0.00,0.00,VWS V14.01,2013-12-01 22:43:00,
2013-12-01 17:46:00,72.5,69.1,29.97,WNW,299,4.0,8.0,89,0.00,,FEW,0.00,0.00,VWS V14.01,2013-12-01 22:46:00,
2013-12-01 17:48:00,72.5,69.1,29.97,NW,318,3.0,8.0,89,0.00,,FEW,0.00,0.00,VWS V14.01,2013-12-01 22:48:00,
2013-12-01 17:51:00,72.4,69.0,29.97,WNW,299,5.0,8.0,89,0.00,,FEW,0.00,0.00,VWS V14.01,2013-12-01 22:51:00,
2013-12-01 17:53:00,72.4,69.0,29.97,NW,322,6.0,9.0,89,0.00,,FEW,0.00,0.00,VWS V14.01,2013-12-01 22:53:00,
2013-12-01 17:56:00,72.3,68.9,29.97,North,355,5.0,9.0,89,0.00,,FEW,0.00,0.00,VWS V14.01,2013-12-01 22:56:00,
2013-12-01 17:58:00,72.3,68.9,29.97,NW,325,4.0,9.0,89,0.00,,FEW,0.00,0.00,VWS V14.01,2013-12-01 22:58:00,
2013-12-01 18:01:00,72.3,68.9,29.97,West,263,3.0,4.0,89,0.00,,FEW,0.00,0.00,VWS V14.01,2013-12-01 23:01:00,
2013-12-01 18:03:00,72.2,68.8,29.97,North,355,3.0,8.0,89,0.00,,FEW,0.00,0.00,VWS V14.01,2013-12-01 23:03:00,
2013-12-01 18:06:00,72.2,68.8,29.97,NW,323,3.0,8.0,89,0.00,,FEW,0.00,0.00,VWS V14.01,2013-12-01 23:06:00,
2013-12-01 18:08:00,72.1,69.0,29.97,NNW,337,7.0,8.0,90,0.00,,FEW,0.00,0.00,VWS V14.01,2013-12-01 23:08:00,
2013-12-01 18:11:00,72.1,69.0,29.97,NNW,332,8.0,8.0,90,0.00,,FEW,0.00,0.00,VWS V14.01,2013-12-01 23:11:00,
2013-12-01 18:12:00,72.1,69.0,29.97,NNW,345,4.0,8.0,90,0.00,,FEW,0.00,0.00,VWS V14.01,2013-12-01 23:12:00,
2013-12-01 18:14:00,72.1,69.0,29.97,NW,305,5.0,11.0,90,0.00,,FEW,0.00,0.00,VWS V14.01,2013-12-01 23:14:00,
2013-12-01 18:16:00,72.0,68.9,29.97,North,360,5.0,11.0,90,0.00,,FEW,0.00,0.00,VWS V14.01,2013-12-01 23:16:00,
2013-12-01 18:17:00,72.0,68.9,29.97,WNW,296,4.0,11.0,90,0.00,,FEW,0.00,0.00,VWS V14.01,2013-12-01 23:17:00,
2013-12-01 18:19:00,72.0,68.9,29.97,NNW,339,3.0,11.0,90,0.00,,FEW,0.00,0.00,VWS V14.01,2013-12-01 23:19:00,
2013-12-01 18:20:00,72.0,68.9,29.97,NW,324,10.0,11.0,90,0.00,,FEW,0.00,0.00,VWS V14.01,2013-12-01 23:20:00,
2013-12-01 18:21:00,72.0,68.9,29.97,NNW,344,4.0,7.0,90,0.00,,FEW,0.00,0.00,VWS V14.01,2013-12-01 23:21:00,
2013-12-01 18:22:00,72.0,68.9,29.97,North,5,6.0,7.0,90,0.00,,FEW,0.00,0.00,VWS V14.01,2013-12-01 23:22:00,
2013-12-01 18:24:00,72.1,69.0,29.97,NNW,331,4.0,7.0,90,0.00,,FEW,0.00,0.00,VWS V14.01,2013-12-01 23:24:00,
2013-12-01 18:25:00,72.1,69.0,29.97,North,360,6.0,7.0,90,0.00,,FEW,0.00,0.00,VWS V14.01,2013-12-01 23:25:00,
2013-12-01 18:27:00,72.0,68.9,29.97,North,360,2.0,8.0,90,0.00,,FEW,0.00,0.00,VWS V14.01,2013-12-01 23:27:00,
2013-12-01 18:29:00,72.1,69.0,29.97,WNW,292,4.0,8.0,90,0.00,,FEW,0.00,0.00,VWS V14.01,2013-12-01 23:29:00,
2013-12-01 18:30:00,72.0,68.9,29.97,North,5,2.0,8.0,90,0.00,,FEW,0.00,0.00,VWS V14.01,2013-12-01 23:30:00,
2013-12-01 18:32:00,72.0,68.9,29.97,NNW,333,3.0,7.0,90,0.00,,FEW,0.00,0.00,VWS V14.01,2013-12-01 23:32:00,
2013-12-01 18:33:00,71.9,68.8,29.97,NW,319,6.0,7.0,90,0.00,,FEW,0.00,0.00,VWS V14.01,2013-12-01 23:33:00,
2013-12-01 18:35:00,71.9,68.8,29.97,NW,325,5.0,9.0,90,0.00,,FEW,0.00,0.00,VWS V14.01,2013-12-01 23:35:00,
2013-12-01 18:37:00,71.9,68.8,29.97,NNW,329,7.0,9.0,90,0.00,,FEW,0.00,0.00,VWS V14.01,2013-12-01 23:37:00,
2013-12-01 18:39:00,71.9,68.8,29.97,North,360,3.0,9.0,90,0.00,,FEW,0.00,0.00,VWS V14.01,2013-12-01 23:39:00,
2013-12-01 18:40:00,71.9,68.8,29.97,NW,325,5.0,9.0,90,0.00,,FEW,0.00,0.00,VWS V14.01,2013-12-01 23:40:00,
2013-12-01 18:42:00,71.8,68.7,29.97,NNW,336,5.0,10.0,90,0.00,,FEW,0.00,0.00,VWS V14.01,2013-12-01 23:42:00,
2013-12-01 18:43:00,71.9,68.8,29.97,NNW,334,6.0,10.0,90,0.00,,FEW,0.00,0.00,VWS V14.01,2013-12-01 23:43:00,
2013-12-01 18:44:00,71.8,68.7,29.97,NNW,345,4.0,10.0,90,0.00,,FEW,0.00,0.00,VWS V14.01,2013-12-01 23:44:00,
2013-12-01 18:45:00,71.8,68.7,29.97,NNW,340,7.0,10.0,90,0.00,,FEW,0.00,0.00,VWS V14.01,2013-12-01 23:45:00,
2013-12-01 18:47:00,71.8,68.7,29.97,NW,309,3.0,10.0,90,0.00,,FEW,0.00,0.00,VWS V14.01,2013-12-01 23:47:00,
2013-12-01 18:48:00,71.8,68.7,29.97,NNW,348,5.0,10.0,90,0.00,,FEW,0.00,0.00,VWS V14.01,2013-12-01 23:48:00,
2013-12-01 18:49:00,71.8,68.7,29.97,NNW,329,7.0,10.0,90,0.00,,FEW,0.00,0.00,VWS V14.01,2013-12-01 23:49:00,
2013-12-01 18:50:00,71.8,68.7,29.97,NNW,336,7.0,10.0,90,0.00,,FEW,0.00,0.00,VWS V14.01,2013-12-01 23:50:00,
2013-12-01 18:51:00,71.8,68.7,29.97,North,355,5.0,10.0,90,0.00,,FEW,0.00,0.00,VWS V14.01,2013-12-01 23:51:00,
2013-12-01 18:52:00,71.8,68.7,29.97,North,11,6.0,10.0,90,0.00,,FEW,0.00,0.00,VWS V14.01,2013-12-01 23:52:00,
2013-12-01 18:53:00,71.8,68.7,29.97,NNE,18,5.0,10.0,90,0.00,,FEW,0.00,0.00,VWS V14.01,2013-12-01 23:53:00,
2013-12-01 18:55:00,71.8,68.7,29.97,NNW,344,4.0,10.0,90,0.00,,FEW,0.00,0.00,VWS V14.01,2013-12-01 23:55:00,
2013-12-01 18:56:00,71.8,68.7,29.97,NNW,341,6.0,10.0,90,0.00,,FEW,0.00,0.00,VWS V14.01,2013-12-01 23:56:00,
2013-12-01 18:57:00,71.8,69.0,29.97,NW,325,6.0,10.0,91,0.00,,FEW,0.00,0.00,VWS V14.01,2013-12-01 23:57:00,
2013-12-01 18:58:00,71.8,69.0,29.97,NNW,344,5.0,10.0,91,0.00,,FEW,0.00,0.00,VWS V14.01,2013-12-01 23:58:00,
2013-12-01 18:59:00,71.8,69.0,29.97,North,350,6.0,10.0,91,0.00,,FEW,0.00,0.00,VWS V14.01,2013-12-01 23:59:00,
2013-12-01 19:00:00,71.8,69.0,29.97,North,350,3.0,10.0,91,0.00,,FEW,0.00,0.00,VWS V14.01,2013-12-02 00:00:00,
2013-12-01 19:01:00,71.8,69.0,29.97,North,355,5.0,10.0,91,0.00,,FEW,0.00,0.00,VWS V14.01,2013-12-02 00:01:00,
2013-12-01 19:02:00,71.8,69.0,29.97,NNW,339,3.0,8.0,91,0.00,,FEW,0.00,0.00,VWS V14.01,2013-12-02 00:02:00,
2013-12-01 19:03:00,71.8,69.0,29.97,NNW,338,6.0,8.0,91,0.00,,FEW,0.00,0.00,VWS V14.01,2013-12-02 00:03:00,
2013-12-01 19:04:00,71.8,69.0,29.97,NW,309,6.0,8.0,91,0.00,,FEW,0.00,0.00,VWS V14.01,2013-12-02 00:04:00,
2013-12-01 19:05:00,71.8,69.0,29.97,North,355,6.0,8.0,91,0.00,,FEW,0.00,0.00,VWS V14.01,2013-12-02 00:05:00,
2013-12-01 19:06:00,71.8,69.0,29.97,North,349,7.0,8.0,91,0.00,,FEW,0.00,0.00,VWS V14.01,2013-12-02 00:06:00,
2013-12-01 19:07:00,71.7,68.9,29.97,North,355,7.0,8.0,91,0.00,,FEW,0.00,0.00,VWS V14.01,2013-12-02 00:07:00,
2013-12-01 19:08:00,71.8,69.0,29.97,WNW,285,3.0,8.0,91,0.00,,FEW,0.00,0.00,VWS V14.01,2013-12-02 00:08:00,
2013-12-01 19:09:00,71.8,69.0,29.97,NW,323,4.0,8.0,91,0.00,,FEW,0.00,0.00,VWS V14.01,2013-12-02 00:09:00,
2013-12-01 19:10:00,71.7,68.9,29.97,NNE,12,6.0,8.0,91,0.00,,FEW,0.00,0.00,VWS V14.01,2013-12-02 00:10:00,
2013-12-01 19:11:00,71.8,69.0,29.97,NNW,333,4.0,5.0,91,0.00,,FEW,0.00,0.00,VWS V14.01,2013-12-02 00:11:00,
2013-12-01 19:12:00,71.8,69.0,29.97,NNW,346,7.0,7.0,91,0.00,,FEW,0.00,0.00,VWS V14.01,2013-12-02 00:12:00,
2013-12-01 19:13:00,71.8,69.0,29.97,North,360,5.0,7.0,91,0.00,,FEW,0.00,0.00,VWS V14.01,2013-12-02 00:13:00,
2013-12-01 19:14:00,71.8,69.0,29.97,NW,323,5.0,7.0,91,0.00,,FEW,0.00,0.00,VWS V14.01,2013-12-02 00:14:00,
2013-12-01 19:15:00,71.8,69.0,29.97,North,350,5.0,7.0,91,0.00,,FEW,0.00,0.00,VWS V14.01,2013-12-02 00:15:00,
2013-12-01 19:16:00,71.8,69.0,29.97,NNW,346,6.0,7.0,91,0.00,,FEW,0.00,0.00,VWS V14.01,2013-12-02 00:16:00,
2013-12-01 19:17:00,71.7,68.9,29.97,NNW,331,5.0,7.0,91,0.00,,FEW,0.00,0.00,VWS V14.01,2013-12-02 00:17:00,
2013-12-01 19:18:00,71.7,68.9,29.97,NNW,344,6.0,7.0,91,0.00,,FEW,0.00,0.00,VWS V14.01,2013-12-02 00:18:00,
2013-12-01 19:19:00,71.7,68.9,29.97,North,355,5.0,7.0,91,0.00,,FEW,0.00,0.00,VWS V14.01,2013-12-02 00:19:00,
2013-12-01 19:20:00,71.7,68.9,29.97,NNW,346,7.0,7.0,91,0.00,,FEW,0.00,0.00,VWS V14.01,2013-12-02 00:20:00,
2013-12-01 19:21:00,71.7,68.9,29.97,North,355,6.0,7.0,91,0.00,,FEW,0.00,0.00,VWS V14.01,2013-12-02 00:21:00,
2013-12-01 19:23:00,71.7,68.9,29.97,North,355,7.0,9.0,91,0.00,,FEW,0.00,0.00,VWS V14.01,2013-12-02 00:23:00,
2013-12-01 19:24:00,71.6,68.8,29.97,NNW,345,2.0,9.0,91,0.00,,FEW,0.00,0.00,VWS V14.01,2013-12-02 00:24:00,
2013-12-01 19:25:00,71.6,68.8,29.97,NNW,338,3.0,9.0,91,0.00,,FEW,0.00,0.00,VWS V14.01,2013-12-02 00:25:00,
2013-12-01 19:26:00,71.5,68.7,29.97,NNW,342,2.0,9.0,91,0.00,,FEW,0.00,0.00,VWS V14.01,2013-12-02 00:26:00,
2013-12-01 19:28:00,71.5,69.1,29.97,NNW,338,3.0,9.0,92,0.00,,FEW,0.00,0.00,VWS V14.01,2013-12-02 00:28:00,
2013-12-01 19:29:00,71.5,69.1,29.97,NNW,337,8.0,9.0,92,0.00,,FEW,0.00,0.00,VWS V14.01,2013-12-02 00:29:00,
2013-12-01 19:30:00,71.5,69.1,29.97,NNW,337,7.0,9.0,92,0.00,,FEW,0.00,0.00,VWS V14.01,2013-12-02 00:30:00,
2013-12-01 19:31:00,71.5,69.1,29.97,NW,311,7.0,7.0,92,0.00,,FEW,0.00,0.00,VWS V14.01,2013-12-02 00:31:00,
2013-12-01 19:33:00,71.4,69.0,29.97,NW,325,5.0,7.0,92,0.00,,FEW,0.00,0.00,VWS V14.01,2013-12-02 00:33:00,
2013-12-01 19:34:00,71.4,69.0,29.97,North,350,3.0,7.0,92,0.00,,FEW,0.00,0.00,VWS V14.01,2013-12-02 00:34:00,
2013-12-01 19:36:00,71.4,69.0,29.97,NNW,331,6.0,8.0,92,0.00,,FEW,0.00,0.00,VWS V14.01,2013-12-02 00:36:00,
2013-12-01 19:38:00,71.4,69.0,29.97,NNW,335,7.0,9.0,92,0.00,,FEW,0.00,0.00,VWS V14.01,2013-12-02 00:38:00,
2013-12-01 19:39:00,71.4,69.0,29.97,NW,326,5.0,9.0,92,0.00,,FEW,0.00,0.00,VWS V14.01,2013-12-02 00:39:00,
2013-12-01 19:40:00,71.4,69.0,29.97,NNW,337,6.0,9.0,92,0.00,,FEW,0.00,0.00,VWS V14.01,2013-12-02 00:40:00,
2013-12-01 19:41:00,71.4,69.0,29.97,WNW,300,4.0,5.0,92,0.00,,FEW,0.00,0.00,VWS V14.01,2013-12-02 00:41:00,
2013-12-01 19:42:00,71.4,69.0,29.97,NNW,339,5.0,9.0,92,0.00,,FEW,0.00,0.00,VWS V14.01,2013-12-02 00:42:00,
2013-12-01 19:43:00,71.4,69.0,29.97,NNW,340,4.0,9.0,92,0.00,,FEW,0.00,0.00,VWS V14.01,2013-12-02 00:43:00,
2013-12-01 19:44:00,71.4,69.0,29.97,NNW,340,4.0,9.0,92,0.00,,FEW,0.00,0.00,VWS V14.01,2013-12-02 00:44:00,
2013-12-01 19:45:00,71.4,69.0,29.98,NNW,331,3.0,9.0,92,0.00,,FEW,0.00,0.00,VWS V14.01,2013-12-02 00:45:00,
2013-12-01 19:46:00,71.4,69.0,29.98,NW,315,5.0,9.0,92,0.00,,FEW,0.00,0.00,VWS V14.01,2013-12-02 00:46:00,
2013-12-01 19:47:00,71.4,69.0,29.98,NNW,334,0.0,9.0,92,0.00,,FEW,0.00,0.00,VWS V14.01,2013-12-02 00:47:00,
2013-12-01 19:48:00,71.4,69.0,29.98,North,350,4.0,9.0,92,0.00,,FEW,0.00,0.00,VWS V14.01,2013-12-02 00:48:00,
2013-12-01 19:49:00,71.4,69.0,29.98,North,5,3.0,9.0,92,0.00,,FEW,0.00,0.00,VWS V14.01,2013-12-02 00:49:00,
2013-12-01 19:50:00,71.4,69.0,29.98,NNW,344,4.0,9.0,92,0.00,,FEW,0.00,0.00,VWS V14.01,2013-12-02 00:50:00,
2013-12-01 19:51:00,71.4,69.0,29.98,North,360,6.0,8.0,92,0.00,,FEW,0.00,0.00,VWS V14.01,2013-12-02 00:51:00,
2013-12-01 19:52:00,71.3,68.9,29.98,NNE,13,4.0,8.0,92,0.00,,FEW,0.00,0.00,VWS V14.01,2013-12-02 00:52:00,
2013-12-01 19:54:00,71.3,68.9,29.98,NNW,347,5.0,8.0,92,0.00,,FEW,0.00,0.00,VWS V14.01,2013-12-02 00:54:00,
2013-12-01 19:55:00,71.2,68.8,29.98,NNW,344,7.0,9.0,92,0.00,,FEW,0.00,0.00,VWS V14.01,2013-12-02 00:55:00,
2013-12-01 19:56:00,71.2,68.4,29.98,NW,323,4.0,9.0,91,0.00,,FEW,0.00,0.00,VWS V14.01,2013-12-02 00:56:00,
2013-12-01 19:57:00,71.2,68.4,29.98,North,355,4.0,9.0,91,0.00,,FEW,0.00,0.00,VWS V14.01,2013-12-02 00:57:00,
2013-12-01 19:59:00,71.2,68.8,29.98,North,355,4.0,9.0,92,0.00,,FEW,0.00,0.00,VWS V14.01,2013-12-02 00:59:00,
2013-12-01 20:00:00,71.2,68.8,29.98,NNW,341,3.0,9.0,92,0.00,,FEW,0.00,0.00,VWS V14.01,2013-12-02 01:00:00,
2013-12-01 20:01:00,71.2,68.8,29.98,NNW,332,2.0,4.0,92,0.00,,FEW,0.00,0.00,VWS V14.01,2013-12-02 01:01:00,
2013-12-01 20:02:00,71.3,68.9,29.98,NNW,336,7.0,7.0,92,0.00,,FEW,0.00,0.00,VWS V14.01,2013-12-02 01:02:00,
2013-12-01 20:04:00,71.3,68.9,29.98,NNW,329,5.0,8.0,92,0.00,,FEW,0.00,0.00,VWS V14.01,2013-12-02 01:04:00,
2013-12-01 20:05:00,71.2,68.8,29.98,NW,318,5.0,8.0,92,0.00,,FEW,0.00,0.00,VWS V14.01,2013-12-02 01:05:00,
2013-12-01 20:07:00,71.3,68.9,29.98,NNW,331,7.0,9.0,92,0.00,,FEW,0.00,0.00,VWS V14.01,2013-12-02 01:07:00,
2013-12-01 20:08:00,71.3,68.9,29.98,NNW,337,4.0,9.0,92,0.00,,FEW,0.00,0.00,VWS V14.01,2013-12-02 01:08:00,
2013-12-01 20:09:00,71.3,68.9,29.98,NNW,345,7.0,9.0,92,0.00,,FEW,0.00,0.00,VWS V14.01,2013-12-02 01:09:00,
2013-12-01 20:10:00,71.2,68.4,29.98,NNW,342,8.0,9.0,91,0.00,,FEW,0.00,0.00,VWS V14.01,2013-12-02 01:10:00,
2013-12-01 20:12:00,71.2,68.4,29.98,NNW,348,7.0,8.0,91,0.00,,FEW,0.00,0.00,VWS V14.01,2013-12-02 01:12:00,
2013-12-01 20:13:00,71.2,68.4,29.98,NNW,334,3.0,9.0,91,0.00,,FEW,0.00,0.00,VWS V14.01,2013-12-02 01:13:00,
2013-12-01 20:14:00,71.2,68.4,29.98,NW,321,6.0,9.0,91,0.00,,FEW,0.00,0.00,VWS V14.01,2013-12-02 01:14:00,
2013-12-01 20:15:00,71.2,68.4,29.98,North,355,10.0,10.0,91,0.00,,FEW,0.00,0.00,VWS V14.01,2013-12-02 01:15:00,
2013-12-01 20:17:00,71.2,68.4,29.98,WNW,302,5.0,10.0,91,0.00,,FEW,0.00,0.00,VWS V14.01,2013-12-02 01:17:00,
2013-12-01 20:19:00,71.2,68.4,29.98,NNW,348,3.0,10.0,91,0.00,,FEW,0.00,0.00,VWS V14.01,2013-12-02 01:19:00,
2013-12-01 20:20:00,71.2,68.4,29.98,NW,313,3.0,10.0,91,0.00,,FEW,0.00,0.00,VWS V14.01,2013-12-02 01:20:00,
2013-12-01 20:21:00,71.2,68.4,29.98,NNW,336,4.0,10.0,91,0.00,,FEW,0.00,0.00,VWS V14.01,2013-12-02 01:21:00,
2013-12-01 20:22:00,71.3,68.5,29.98,North,349,5.0,6.0,91,0.00,,FEW,0.00,0.00,VWS V14.01,2013-12-02 01:22:00,
2013-12-01 20:24:00,71.3,68.5,29.98,North,360,5.0,7.0,91,0.00,,FEW,0.00,0.00,VWS V14.01,2013-12-02 01:24:00,
2013-12-01 20:25:00,71.3,68.5,29.98,North,349,4.0,7.0,91,0.00,,FEW,0.00,0.00,VWS V14.01,2013-12-02 01:25:00,
2013-12-01 20:26:00,71.3,68.5,29.98,NNW,347,4.0,7.0,91,0.00,,FEW,0.00,0.00,VWS V14.01,2013-12-02 01:26:00,
2013-12-01 20:27:00,71.3,68.5,29.98,NNW,331,6.0,7.0,91,0.00,,FEW,0.00,0.00,VWS V14.01,2013-12-02 01:27:00,
2013-12-01 20:28:00,71.3,68.5,29.98,NW,319,8.0,8.0,91,0.00,,FEW,0.00,0.00,VWS V14.01,2013-12-02 01:28:00,
2013-12-01 20:29:00,71.3,68.5,29.98,NNW,337,8.0,8.0,91,0.00,,FEW,0.00,0.00,VWS V14.01,2013-12-02 01:29:00,
2013-12-01 20:30:00,71.3,68.5,29.98,NNW,338,6.0,8.0,91,0.00,,FEW,0.00,0.00,VWS V14.01,2013-12-02 01:30:00,
2013-12-01 20:31:00,71.2,68.4,29.99,NNW,344,5.0,5.0,91,0.00,,FEW,0.00,0.00,VWS V14.01,2013-12-02 01:31:00,
2013-12-01 20:33:00,71.2,68.4,29.99,NNE,14,4.0,6.0,91,0.00,,FEW,0.00,0.00,VWS V14.01,2013-12-02 01:33:00,
2013-12-01 20:34:00,71.2,68.4,29.99,NNW,344,3.0,7.0,91,0.00,,FEW,0.00,0.00,VWS V14.01,2013-12-02 01:34:00,
2013-12-01 20:35:00,71.3,68.5,29.99,North,9,6.0,7.0,91,0.00,,FEW,0.00,0.00,VWS V14.01,2013-12-02 01:35:00,
2013-12-01 20:36:00,71.3,68.5,29.99,North,355,2.0,7.0,91,0.00,,FEW,0.00,0.00,VWS V14.01,2013-12-02 01:36:00,
2013-12-01 20:38:00,71.3,68.5,29.99,NNW,337,6.0,8.0,91,0.00,,FEW,0.00,0.00,VWS V14.01,2013-12-02 01:38:00,
2013-12-01 20:39:00,71.3,68.5,29.99,WNW,300,4.0,8.0,91,0.00,,FEW,0.00,0.00,VWS V14.01,2013-12-02 01:39:00,
2013-12-01 20:40:00,71.3,68.5,29.99,North,355,7.0,8.0,91,0.00,,FEW,0.00,0.00,VWS V14.01,2013-12-02 01:40:00,
2013-12-01 20:41:00,71.3,68.5,29.99,NNW,346,7.0,7.0,91,0.00,,FEW,0.00,0.00,VWS V14.01,2013-12-02 01:41:00,
2013-12-01 20:43:00,71.3,68.5,29.99,NNE,20,5.0,7.0,91,0.00,,FEW,0.00,0.00,VWS V14.01,2013-12-02 01:43:00,
2013-12-01 20:44:00,71.3,68.5,29.99,NNE,16,3.0,8.0,91,0.00,,FEW,0.00,0.00,VWS V14.01,2013-12-02 01:44:00,
2013-12-01 20:45:00,71.3,68.5,29.99,NW,313,6.0,8.0,91,0.00,,FEW,0.00,0.00,VWS V14.01,2013-12-02 01:45:00,
2013-12-01 20:47:00,71.3,68.2,29.99,North,360,4.0,8.0,90,0.00,,FEW,0.00,0.00,VWS V14.01,2013-12-02 01:47:00,
2013-12-01 20:48:00,71.3,68.5,29.99,NW,316,3.0,8.0,91,0.00,,FEW,0.00,0.00,VWS V14.01,2013-12-02 01:48:00,
2013-12-01 20:50:00,71.4,68.6,29.99,North,355,6.0,8.0,91,0.00,,FEW,0.00,0.00,VWS V14.01,2013-12-02 01:50:00,
2013-12-01 20:51:00,71.4,68.6,29.99,North,350,7.0,7.0,91,0.00,,FEW,0.00,0.00,VWS V14.01,2013-12-02 01:51:00,
2013-12-01 20:52:00,71.4,68.6,29.99,North,11,7.0,7.0,91,0.00,,FEW,0.00,0.00,VWS V14.01,2013-12-02 01:52:00,
2013-12-01 20:53:00,71.3,68.2,29.99,North,5,5.0,9.0,90,0.00,,FEW,0.00,0.00,VWS V14.01,2013-12-02 01:53:00,
2013-12-01 20:55:00,71.3,68.2,29.99,NNW,333,5.0,9.0,90,0.00,,FEW,0.00,0.00,VWS V14.01,2013-12-02 01:55:00,
2013-12-01 20:56:00,71.3,68.2,29.99,NNW,339,4.0,9.0,90,0.00,,FEW,0.00,0.00,VWS V14.01,2013-12-02 01:56:00,
2013-12-01 20:57:00,71.3,68.2,29.99,NNW,336,6.0,9.0,90,0.00,,FEW,0.00,0.00,VWS V14.01,2013-12-02 01:57:00,
2013-12-01 20:58:00,71.3,68.2,29.99,North,351,5.0,9.0,90,0.00,,FEW,0.00,0.00,VWS V14.01,2013-12-02 01:58:00,
2013-12-01 21:00:00,71.3,68.2,29.99,NNW,333,5.0,9.0,90,0.00,,FEW,0.00,0.00,VWS V14.01,2013-12-02 02:00:00,
2013-12-01 21:01:00,71.3,68.2,29.99,NNW,345,5.0,5.0,90,0.00,,FEW,0.00,0.00,VWS V14.01,2013-12-02 02:01:00,
2013-12-01 21:02:00,71.3,68.2,29.99,NNW,348,6.0,6.0,90,0.00,,FEW,0.00,0.00,VWS V14.01,2013-12-02 02:02:00,
2013-12-01 21:03:00,71.3,68.2,29.99,NW,311,4.0,6.0,90,0.00,,FEW,0.00,0.00,VWS V14.01,2013-12-02 02:03:00,
2013-12-01 21:04:00,71.3,68.2,29.99,NW,326,4.0,7.0,90,0.00,,FEW,0.00,0.00,VWS V14.01,2013-12-02 02:04:00,
2013-12-01 21:05:00,71.3,68.2,29.99,WNW,300,3.0,7.0,90,0.00,,FEW,0.00,0.00,VWS V14.01,2013-12-02 02:05:00,
2013-12-01 21:07:00,71.3,68.2,29.99,WNW,302,4.0,7.0,90,0.00,,FEW,0.00,0.00,VWS V14.01,2013-12-02 02:07:00,
2013-12-01 21:08:00,71.3,68.2,29.99,NNE,16,3.0,7.0,90,0.00,,FEW,0.00,0.00,VWS V14.01,2013-12-02 02:08:00,
2013-12-01 21:10:00,71.3,68.2,29.99,NNW,331,4.0,7.0,90,0.00,,FEW,0.00,0.00,VWS V14.01,2013-12-02 02:10:00,
2013-12-01 21:11:00,71.4,68.3,29.99,North,11,4.0,6.0,90,0.00,,FEW,0.00,0.00,VWS V14.01,2013-12-02 02:11:00,
2013-12-01 21:12:00,71.4,68.3,29.99,NNW,333,4.0,8.0,90,0.00,,FEW,0.00,0.00,VWS V14.01,2013-12-02 02:12:00,
2013-12-01 21:13:00,71.4,68.3,29.99,NNW,346,7.0,8.0,90,0.00,,FEW,0.00,0.00,VWS V14.01,2013-12-02 02:13:00,
2013-12-01 21:14:00,71.4,68.6,29.99,NNW,340,3.0,8.0,91,0.00,,FEW,0.00,0.00,VWS V14.01,2013-12-02 02:14:00,
2013-12-01 21:15:00,71.4,68.3,29.98,NNW,345,5.0,8.0,90,0.00,,FEW,0.00,0.00,VWS V14.01,2013-12-02 02:15:00,
2013-12-01 21:16:00,71.4,68.6,29.98,North,351,7.0,8.0,91,0.00,,FEW,0.00,0.00,VWS V14.01,2013-12-02 02:16:00,
2013-12-01 21:18:00,71.4,68.6,29.98,NNW,341,4.0,9.0,91,0.00,,FEW,0.00,0.00,VWS V14.01,2013-12-02 02:18:00,
2013-12-01 21:19:00,71.4,68.6,29.98,NNW,330,9.0,9.0,91,0.00,,FEW,0.00,0.00,VWS V14.01,2013-12-02 02:19:00,
2013-12-01 21:20:00,71.4,68.6,29.98,NNW,341,8.0,9.0,91,0.00,,FEW,0.00,0.00,VWS V14.01,2013-12-02 02:20:00,
2013-12-01 21:21:00,71.4,68.6,29.98,NNW,335,8.0,9.0,91,0.00,,FEW,0.00,0.00,VWS V14.01,2013-12-02 02:21:00,
2013-12-01 21:22:00,71.4,68.6,29.98,NNW,344,4.0,8.0,91,0.00,,FEW,0.00,0.00,VWS V14.01,2013-12-02 02:22:00,
2013-12-01 21:23:00,71.4,68.6,29.98,North,5,4.0,8.0,91,0.00,,FEW,0.00,0.00,VWS V14.01,2013-12-02 02:23:00,
2013-12-01 21:24:00,71.4,68.6,29.98,North,355,5.0,8.0,91,0.00,,FEW,0.00,0.00,VWS V14.01,2013-12-02 02:24:00,
2013-12-01 21:26:00,71.4,68.6,29.98,North,349,5.0,8.0,91,0.00,,FEW,0.00,0.00,VWS V14.01,2013-12-02 02:26:00,
2013-12-01 21:27:00,71.4,68.6,29.98,NNW,348,5.0,9.0,91,0.00,,FEW,0.00,0.00,VWS V14.01,2013-12-02 02:27:00,
2013-12-01 21:28:00,71.4,68.6,29.98,NNW,341,5.0,9.0,91,0.00,,FEW,0.00,0.00,VWS V14.01,2013-12-02 02:28:00,
2013-12-01 21:29:00,71.4,68.6,29.98,NNW,344,10.0,10.0,91,0.00,,FEW,0.00,0.00,VWS V14.01,2013-12-02 02:29:00,
2013-12-01 21:31:00,71.4,68.6,29.97,North,355,4.0,5.0,91,0.00,,FEW,0.00,0.00,VWS V14.01,2013-12-02 02:31:00,
2013-12-01 21:32:00,71.4,68.6,29.97,North,351,6.0,8.0,91,0.00,,FEW,0.00,0.00,VWS V14.01,2013-12-02 02:32:00,
2013-12-01 21:33:00,71.4,68.6,29.97,North,355,6.0,10.0,91,0.00,,FEW,0.00,0.00,VWS V14.01,2013-12-02 02:33:00,
2013-12-01 21:34:00,71.4,68.6,29.97,NNW,338,7.0,10.0,91,0.00,,FEW,0.00,0.00,VWS V14.01,2013-12-02 02:34:00,
2013-12-01 21:36:00,71.3,68.5,29.97,North,355,4.0,10.0,91,0.00,,FEW,0.00,0.00,VWS V14.01,2013-12-02 02:36:00,
2013-12-01 21:37:00,71.3,68.5,29.97,North,360,5.0,10.0,91,0.00,,FEW,0.00,0.00,VWS V14.01,2013-12-02 02:37:00,
2013-12-01 21:38:00,71.3,68.5,29.97,North,5,4.0,10.0,91,0.00,,FEW,0.00,0.00,VWS V14.01,2013-12-02 02:38:00,
2013-12-01 21:39:00,71.3,68.5,29.97,North,360,5.0,10.0,91,0.00,,FEW,0.00,0.00,VWS V14.01,2013-12-02 02:39:00,
2013-12-01 21:40:00,71.3,68.5,29.97,NNW,341,2.0,10.0,91,0.00,,FEW,0.00,0.00,VWS V14.01,2013-12-02 02:40:00,
2013-12-01 21:41:00,71.2,68.4,29.97,North,9,1.0,7.0,91,0.00,,FEW,0.00,0.00,VWS V14.01,2013-12-02 02:41:00,
2013-12-01 21:42:00,71.2,68.4,29.97,NNE,17,3.0,7.0,91,0.00,,FEW,0.00,0.00,VWS V14.01,2013-12-02 02:42:00,
2013-12-01 21:43:00,71.1,68.3,29.97,NNW,345,4.0,7.0,91,0.00,,FEW,0.00,0.00,VWS V14.01,2013-12-02 02:43:00,
2013-12-01 21:45:00,71.1,68.3,29.97,NNE,30,2.0,7.0,91,0.00,,FEW,0.00,0.00,VWS V14.01,2013-12-02 02:45:00,
2013-12-01 21:47:00,71.1,68.7,29.97,NNW,333,6.0,10.0,92,0.00,,FEW,0.00,0.00,VWS V14.01,2013-12-02 02:47:00,
2013-12-01 21:48:00,71.1,68.7,29.97,NNE,19,3.0,10.0,92,0.00,,FEW,0.00,0.00,VWS V14.01,2013-12-02 02:48:00,
2013-12-01 21:50:00,71.0,68.6,29.97,North,5,4.0,10.0,92,0.00,,FEW,0.00,0.00,VWS V14.01,2013-12-02 02:50:00,
2013-12-01 21:52:00,71.0,68.6,29.97,NNW,328,6.0,7.0,92,0.00,,FEW,0.00,0.00,VWS V14.01,2013-12-02 02:52:00,
2013-12-01 21:53:00,71.0,68.6,29.97,NNE,17,3.0,9.0,92,0.00,,FEW,0.00,0.00,VWS V14.01,2013-12-02 02:53:00,
2013-12-01 21:54:00,70.9,68.5,29.97,North,360,4.0,9.0,92,0.00,,FEW,0.00,0.00,VWS V14.01,2013-12-02 02:54:00,
2013-12-01 21:55:00,70.9,68.5,29.97,North,360,3.0,9.0,92,0.00,,FEW,0.00,0.00,VWS V14.01,2013-12-02 02:55:00,
2013-12-01 21:57:00,70.9,68.5,29.97,NNE,31,2.0,9.0,92,0.00,,FEW,0.00,0.00,VWS V14.01,2013-12-02 02:57:00,
2013-12-01 21:58:00,70.9,68.5,29.97,NNE,32,3.0,9.0,92,0.00,,FEW,0.00,0.00,VWS V14.01,2013-12-02 02:58:00,
2013-12-01 21:59:00,70.9,68.5,29.97,North,11,6.0,9.0,92,0.00,,FEW,0.00,0.00,VWS V14.01,2013-12-02 02:59:00,
2013-12-01 22:00:00,70.9,68.5,29.97,North,360,2.0,9.0,92,0.00,,FEW,0.00,0.00,VWS V14.01,2013-12-02 03:00:00,
2013-12-01 22:02:00,70.9,68.5,29.97,North,355,7.0,7.0,92,0.00,,FEW,0.00,0.00,VWS V14.01,2013-12-02 03:02:00,
2013-12-01 22:03:00,70.9,68.5,29.97,NNE,19,4.0,8.0,92,0.00,,FEW,0.00,0.00,VWS V14.01,2013-12-02 03:03:00,
2013-12-01 22:04:00,70.9,68.5,29.97,North,355,5.0,8.0,92,0.00,,FEW,0.00,0.00,VWS V14.01,2013-12-02 03:04:00,
2013-12-01 22:05:00,70.9,68.5,29.97,NNW,348,6.0,8.0,92,0.00,,FEW,0.00,0.00,VWS V14.01,2013-12-02 03:05:00,
2013-12-01 22:07:00,70.9,68.5,29.97,NNE,24,6.0,8.0,92,0.00,,FEW,0.00,0.00,VWS V14.01,2013-12-02 03:07:00,
2013-12-01 22:08:00,70.9,68.5,29.97,NNE,30,5.0,8.0,92,0.00,,FEW,0.00,0.00,VWS V14.01,2013-12-02 03:08:00,
2013-12-01 22:09:00,70.9,68.5,29.97,NW,317,7.0,8.0,92,0.00,,FEW,0.00,0.00,VWS V14.01,2013-12-02 03:09:00,
2013-12-01 22:10:00,70.8,68.4,29.97,North,11,4.0,8.0,92,0.00,,FEW,0.00,0.00,VWS V14.01,2013-12-02 03:10:00,
2013-12-01 22:11:00,70.9,68.5,29.97,North,11,2.0,8.0,92,0.00,,FEW,0.00,0.00,VWS V14.01,2013-12-02 03:11:00,
2013-12-01 22:12:00,70.9,68.5,29.97,NNE,24,3.0,4.0,92,0.00,,FEW,0.00,0.00,VWS V14.01,2013-12-02 03:12:00,
2013-12-01 22:13:00,70.8,68.4,29.97,NNW,347,3.0,5.0,92,0.00,,FEW,0.00,0.00,VWS V14.01,2013-12-02 03:13:00,
2013-12-01 22:14:00,70.8,68.4,29.97,NNE,15,4.0,6.0,92,0.00,,FEW,0.00,0.00,VWS V14.01,2013-12-02 03:14:00,
2013-12-01 22:16:00,70.9,68.5,29.97,NNE,21,5.0,7.0,92,0.00,,FEW,0.00,0.00,VWS V14.01,2013-12-02 03:16:00,
2013-12-01 22:17:00,70.8,68.4,29.97,NNE,15,5.0,7.0,92,0.00,,FEW,0.00,0.00,VWS V14.01,2013-12-02 03:17:00,
2013-12-01 22:18:00,70.8,68.4,29.97,North,355,6.0,7.0,92,0.00,,FEW,0.00,0.00,VWS V14.01,2013-12-02 03:18:00,
2013-12-01 22:19:00,70.8,68.4,29.97,NNE,31,3.0,7.0,92,0.00,,FEW,0.00,0.00,VWS V14.01,2013-12-02 03:19:00,
2013-12-01 22:20:00,70.8,68.4,29.97,North,5,5.0,7.0,92,0.00,,FEW,0.00,0.00,VWS V14.01,2013-12-02 03:20:00,
2013-12-01 22:21:00,70.8,68.4,29.97,NNE,29,5.0,7.0,92,0.00,,FEW,0.00,0.00,VWS V14.01,2013-12-02 03:21:00,
2013-12-01 22:22:00,70.7,68.3,29.97,North,5,2.0,5.0,92,0.00,,FEW,0.00,0.00,VWS V14.01,2013-12-02 03:22:00,
2013-12-01 22:23:00,70.7,68.3,29.97,NNW,335,5.0,7.0,92,0.00,,FEW,0.00,0.00,VWS V14.01,2013-12-02 03:23:00,
2013-12-01 22:24:00,70.7,68.3,29.97,NW,325,3.0,7.0,92,0.00,,FEW,0.00,0.00,VWS V14.01,2013-12-02 03:24:00,
2013-12-01 22:25:00,70.6,68.2,29.97,North,11,3.0,7.0,92,0.00,,FEW,0.00,0.00,VWS V14.01,2013-12-02 03:25:00,
2013-12-01 22:26:00,70.7,68.3,29.97,NNW,345,7.0,7.0,92,0.00,,FEW,0.00,0.00,VWS V14.01,2013-12-02 03:26:00,
2013-12-01 22:27:00,70.6,68.2,29.97,NE,34,3.0,7.0,92,0.00,,FEW,0.00,0.00,VWS V14.01,2013-12-02 03:27:00,
2013-12-01 22:28:00,70.7,68.3,29.97,North,355,3.0,7.0,92,0.00,,FEW,0.00,0.00,VWS V14.01,2013-12-02 03:28:00,
2013-12-01 22:29:00,70.7,68.3,29.97,North,5,5.0,7.0,92,0.00,,FEW,0.00,0.00,VWS V14.01,2013-12-02 03:29:00,
2013-12-01 22:30:00,70.6,68.2,29.96,North,355,2.0,7.0,92,0.00,,FEW,0.00,0.00,VWS V14.01,2013-12-02 03:30:00,
2013-12-01 22:31:00,70.6,68.2,29.96,NNE,32,2.0,3.0,92,0.00,,FEW,0.00,0.00,VWS V14.01,2013-12-02 03:31:00,
2013-12-01 22:32:00,70.7,68.3,29.96,North,5,2.0,4.0,92,0.00,,FEW,0.00,0.00,VWS V14.01,2013-12-02 03:32:00,
2013-12-01 22:34:00,70.7,68.3,29.96,NNE,16,6.0,7.0,92,0.00,,FEW,0.00,0.00,VWS V14.01,2013-12-02 03:34:00,
2013-12-01 22:35:00,70.7,68.3,29.96,North,5,2.0,7.0,92,0.00,,FEW,0.00,0.00,VWS V14.01,2013-12-02 03:35:00,
2013-12-01 22:36:00,70.7,68.3,29.96,NNE,27,3.0,7.0,92,0.00,,FEW,0.00,0.00,VWS V14.01,2013-12-02 03:36:00,
2013-12-01 22:38:00,70.7,68.3,29.96,NNW,341,6.0,7.0,92,0.00,,FEW,0.00,0.00,VWS V14.01,2013-12-02 03:38:00,
2013-12-01 22:39:00,70.7,68.3,29.96,NNE,15,5.0,7.0,92,0.00,,FEW,0.00,0.00,VWS V14.01,2013-12-02 03:39:00,
2013-12-01 22:40:00,70.7,68.3,29.96,NNE,12,6.0,8.0,92,0.00,,FEW,0.00,0.00,VWS V14.01,2013-12-02 03:40:00,
2013-12-01 22:41:00,70.6,68.2,29.96,North,349,6.0,6.0,92,0.00,,FEW,0.00,0.00,VWS V14.01,2013-12-02 03:41:00,
2013-12-01 22:43:00,70.5,68.1,29.96,North,360,6.0,6.0,92,0.00,,FEW,0.00,0.00,VWS V14.01,2013-12-02 03:43:00,
2013-12-01 22:44:00,70.5,68.1,29.96,NNE,18,5.0,7.0,92,0.00,,FEW,0.00,0.00,VWS V14.01,2013-12-02 03:44:00,
2013-12-01 22:45:00,70.4,68.0,29.96,North,5,6.0,7.0,92,0.00,,FEW,0.00,0.00,VWS V14.01,2013-12-02 03:45:00,
2013-12-01 22:46:00,70.3,67.9,29.96,North,5,6.0,8.0,92,0.00,,FEW,0.00,0.00,VWS V14.01,2013-12-02 03:46:00,
2013-12-01 22:48:00,70.3,67.9,29.96,North,11,5.0,8.0,92,0.00,,FEW,0.00,0.00,VWS V14.01,2013-12-02 03:48:00,
2013-12-01 22:49:00,70.3,67.9,29.96,NNW,348,6.0,8.0,92,0.00,,FEW,0.00,0.00,VWS V14.01,2013-12-02 03:49:00,
2013-12-01 22:51:00,70.3,67.9,29.96,North,360,3.0,8.0,92,0.00,,FEW,0.00,0.00,VWS V14.01,2013-12-02 03:51:00,
2013-12-01 22:52:00,70.3,67.9,29.96,NNE,23,4.0,5.0,92,0.00,,FEW,0.00,0.00,VWS V14.01,2013-12-02 03:52:00,
2013-12-01 22:53:00,70.3,67.9,29.96,North,360,4.0,8.0,92,0.00,,FEW,0.00,0.00,VWS V14.01,2013-12-02 03:53:00,
2013-12-01 22:54:00,70.3,67.9,29.96,NNW,336,6.0,8.0,92,0.00,,FEW,0.00,0.00,VWS V14.01,2013-12-02 03:54:00,
2013-12-01 22:55:00,70.3,67.9,29.96,NNW,344,3.0,8.0,92,0.00,,FEW,0.00,0.00,VWS V14.01,2013-12-02 03:55:00,
2013-12-01 22:56:00,70.3,67.9,29.96,North,355,4.0,8.0,92,0.00,,FEW,0.00,0.00,VWS V14.01,2013-12-02 03:56:00,
2013-12-01 22:57:00,70.3,67.9,29.96,NNW,343,3.0,8.0,92,0.00,,FEW,0.00,0.00,VWS V14.01,2013-12-02 03:57:00,
2013-12-01 22:58:00,70.3,67.9,29.96,NNE,22,4.0,8.0,92,0.00,,FEW,0.00,0.00,VWS V14.01,2013-12-02 03:58:00,
2013-12-01 22:59:00,70.3,67.9,29.96,North,5,2.0,8.0,92,0.00,,FEW,0.00,0.00,VWS V14.01,2013-12-02 03:59:00,
2013-12-01 23:00:00,70.3,67.9,29.96,North,355,2.0,8.0,92,0.00,,FEW,0.00,0.00,VWS V14.01,2013-12-02 04:00:00,
2013-12-01 23:01:00,70.3,67.9,29.96,North,10,3.0,4.0,92,0.00,,FEW,0.00,0.00,VWS V14.01,2013-12-02 04:01:00,
2013-12-01 23:02:00,70.3,67.9,29.96,North,10,2.0,4.0,92,0.00,,FEW,0.00,0.00,VWS V14.01,2013-12-02 04:02:00,
2013-12-01 23:03:00,70.3,67.9,29.96,North,11,2.0,5.0,92,0.00,,FEW,0.00,0.00,VWS V14.01,2013-12-02 04:03:00,
2013-12-01 23:04:00,70.3,67.9,29.96,North,355,3.0,5.0,92,0.00,,FEW,0.00,0.00,VWS V14.01,2013-12-02 04:04:00,
2013-12-01 23:05:00,70.3,67.9,29.96,North,349,5.0,5.0,92,0.00,,FEW,0.00,0.00,VWS V14.01,2013-12-02 04:05:00,
2013-12-01 23:06:00,70.3,67.9,29.96,North,5,3.0,5.0,92,0.00,,FEW,0.00,0.00,VWS V14.01,2013-12-02 04:06:00,
2013-12-01 23:07:00,70.3,67.9,29.96,North,5,1.0,5.0,92,0.00,,FEW,0.00,0.00,VWS V14.01,2013-12-02 04:07:00,
2013-12-01 23:08:00,70.3,67.9,29.96,North,5,1.0,5.0,92,0.00,,FEW,0.00,0.00,VWS V14.01,2013-12-02 04:08:00,
2013-12-01 23:10:00,70.3,67.9,29.96,NNE,14,3.0,5.0,92,0.00,,FEW,0.00,0.00,VWS V14.01,2013-12-02 04:10:00,
2013-12-01 23:11:00,70.3,67.9,29.96,North,5,2.0,5.0,92,0.00,,FEW,0.00,0.00,VWS V14.01,2013-12-02 04:11:00,
2013-12-01 23:12:00,70.3,67.9,29.96,NNE,17,2.0,3.0,92,0.00,,FEW,0.00,0.00,VWS V14.01,2013-12-02 04:12:00,
2013-12-01 23:13:00,70.3,67.9,29.96,North,5,1.0,4.0,92,0.00,,FEW,0.00,0.00,VWS V14.01,2013-12-02 04:13:00,
2013-12-01 23:15:00,70.3,67.9,29.96,North,5,3.0,5.0,92,0.00,,FEW,0.00,0.00,VWS V14.01,2013-12-02 04:15:00,
2013-12-01 23:16:00,70.3,67.9,29.95,North,5,0.0,5.0,92,0.00,,FEW,0.00,0.00,VWS V14.01,2013-12-02 04:16:00,
2013-12-01 23:17:00,70.3,67.9,29.95,North,5,1.0,5.0,92,0.00,,FEW,0.00,0.00,VWS V14.01,2013-12-02 04:17:00,
2013-12-01 23:18:00,70.3,67.9,29.95,NNE,20,4.0,5.0,92,0.00,,FEW,0.00,0.00,VWS V14.01,2013-12-02 04:18:00,
2013-12-01 23:20:00,70.3,67.9,29.95,NNE,15,3.0,5.0,92,0.00,,FEW,0.00,0.00,VWS V14.01,2013-12-02 04:20:00,
2013-12-01 23:21:00,70.3,67.9,29.95,North,360,3.0,5.0,92,0.00,,FEW,0.00,0.00,VWS V14.01,2013-12-02 04:21:00,
2013-12-01 23:22:00,70.3,67.9,29.95,NNE,27,4.0,6.0,92,0.00,,FEW,0.00,0.00,VWS V14.01,2013-12-02 04:22:00,
2013-12-01 23:23:00,70.3,67.9,29.95,NNE,27,1.0,6.0,92,0.00,,FEW,0.00,0.00,VWS V14.01,2013-12-02 04:23:00,
2013-12-01 23:24:00,70.3,67.9,29.95,North,355,4.0,6.0,92,0.00,,FEW,0.00,0.00,VWS V14.01,2013-12-02 04:24:00,
2013-12-01 23:26:00,70.3,67.9,29.95,NNE,30,3.0,6.0,92,0.00,,FEW,0.00,0.00,VWS V14.01,2013-12-02 04:26:00,
2013-12-01 23:27:00,70.3,67.9,29.95,North,351,5.0,6.0,92,0.00,,FEW,0.00,0.00,VWS V14.01,2013-12-02 04:27:00,
2013-12-01 23:28:00,70.3,67.9,29.95,NNE,28,5.0,6.0,92,0.00,,FEW,0.00,0.00,VWS V14.01,2013-12-02 04:28:00,
2013-12-01 23:29:00,70.3,67.9,29.95,North,11,1.0,6.0,92,0.00,,FEW,0.00,0.00,VWS V14.01,2013-12-02 04:29:00,
2013-12-01 23:31:00,70.3,67.9,29.95,NNE,19,1.0,4.0,92,0.00,,FEW,0.00,0.00,VWS V14.01,2013-12-02 04:31:00,
2013-12-01 23:32:00,70.3,67.9,29.95,NNE,19,2.0,4.0,92,0.00,,FEW,0.00,0.00,VWS V14.01,2013-12-02 04:32:00,
2013-12-01 23:33:00,70.3,67.9,29.95,NE,42,2.0,6.0,92,0.00,,FEW,0.00,0.00,VWS V14.01,2013-12-02 04:33:00,
2013-12-01 23:34:00,70.3,67.9,29.95,North,360,3.0,6.0,92,0.00,,FEW,0.00,0.00,VWS V14.01,2013-12-02 04:34:00,
2013-12-01 23:37:00,70.2,67.8,29.95,NNE,30,3.0,7.0,92,0.00,,FEW,0.00,0.00,VWS V14.01,2013-12-02 04:37:00,
2013-12-01 23:38:00,70.2,67.8,29.95,NNE,27,4.0,7.0,92,0.00,,FEW,0.00,0.00,VWS V14.01,2013-12-02 04:38:00,
2013-12-01 23:39:00,70.2,67.8,29.95,NNE,16,5.0,7.0,92,0.00,,FEW,0.00,0.00,VWS V14.01,2013-12-02 04:39:00,
2013-12-01 23:42:00,70.1,67.7,29.95,NNE,30,1.0,5.0,92,0.00,,FEW,0.00,0.00,VWS V14.01,2013-12-02 04:42:00,
2013-12-01 23:43:00,70.0,67.6,29.95,NNE,26,4.0,7.0,92,0.00,,FEW,0.00,0.00,VWS V14.01,2013-12-02 04:43:00,
2013-12-01 23:44:00,69.9,67.5,29.95,NE,38,3.0,12.0,92,0.00,,FEW,0.00,0.00,VWS V14.01,2013-12-02 04:44:00,
2013-12-01 23:47:00,69.8,67.4,29.94,NNE,19,3.0,12.0,92,0.00,,FEW,0.00,0.00,VWS V14.01,2013-12-02 04:47:00,
2013-12-01 23:48:00,69.8,67.4,29.94,NNE,26,4.0,12.0,92,0.00,,FEW,0.00,0.00,VWS V14.01,2013-12-02 04:48:00,
2013-12-01 23:49:00,69.8,67.4,29.94,NNE,32,7.0,12.0,92,0.00,,FEW,0.00,0.00,VWS V14.01,2013-12-02 04:49:00,
2013-12-01 23:52:00,69.8,67.4,29.94,NNE,29,2.0,7.0,92,0.00,,FEW,0.00,0.00,VWS V14.01,2013-12-02 04:52:00,
2013-12-01 23:53:00,69.8,67.4,29.94,NE,50,2.0,7.0,92,0.00,,FEW,0.00,0.00,VWS V14.01,2013-12-02 04:53:00,
2013-12-01 23:54:00,69.8,67.4,29.94,NE,50,2.0,7.0,92,0.00,,FEW,0.00,0.00,VWS V14.01,2013-12-02 04:54:00,
2013-12-01 23:57:00,69.8,67.4,29.94,NNE,19,7.0,7.0,92,0.00,,FEW,0.00,0.00,VWS V14.01,2013-12-02 04:57:00,
2013-12-01 23:59:00,69.8,67.4,29.94,NNE,15,3.0,7.0,92,0.00,,FEW,0.00,0.00,VWS V14.01,2013-12-02 04:59:00,